Time,TemperatureF,DewpointF,PressureIn,WindDirection,WindDirectionDegrees,WindSpeedMPH,WindSpeedGustMPH,Humidity,HourlyPrecipIn,Conditions,Clouds,dailyrainin,SoftwareType,DateUTC
2013-02-17 00:00:00,21.7,14.1,30.16,North,9,19.0,19.0,72,0.00,,,0.00,Wunderground v.1.15,2013-02-17 05:00:00,
2013-02-17 00:02:00,21.7,14.1,30.16,NNW,346,21.0,21.0,72,0.00,,,0.00,Wunderground v.1.15,2013-02-17 05:02:00,
2013-02-17 00:04:00,21.8,14.8,30.16,NNW,342,19.0,21.0,74,0.00,,,0.00,Wunderground v.1.15,2013-02-17 05:04:00,
2013-02-17 00:08:00,21.7,14.1,30.17,North,9,18.0,21.0,72,0.00,,,0.00,Wunderground v.1.15,2013-02-17 05:08:00,
2013-02-17 00:09:00,21.6,14.0,30.16,North,9,17.0,19.0,72,0.00,,,0.00,Wunderground v.1.15,2013-02-17 05:09:00,
2013-02-17 00:10:00,21.7,14.4,30.17,NNW,330,19.0,19.0,73,0.00,,,0.00,Wunderground v.1.15,2013-02-17 05:10:00,
2013-02-17 00:11:00,21.7,14.4,30.16,North,10,22.0,22.0,73,0.00,,,0.00,Wunderground v.1.15,2013-02-17 05:11:00,
2013-02-17 00:14:00,21.8,15.1,30.17,North,350,16.0,22.0,75,0.00,,,0.00,Wunderground v.1.15,2013-02-17 05:14:00,
2013-02-17 00:17:00,21.7,14.7,30.17,North,360,18.0,22.0,74,0.00,,,0.00,Wunderground v.1.15,2013-02-17 05:17:00,
2013-02-17 00:20:00,21.7,14.7,30.17,NNW,343,18.0,18.0,74,0.00,,,0.00,Wunderground v.1.15,2013-02-17 05:20:00,
2013-02-17 00:22:00,21.6,14.6,30.17,North,360,20.0,21.0,74,0.00,,,0.00,Wunderground v.1.15,2013-02-17 05:22:00,
2013-02-17 00:23:00,21.7,15.0,30.17,NNW,346,23.0,23.0,75,0.00,,,0.00,Wunderground v.1.15,2013-02-17 05:23:00,
2013-02-17 00:25:00,21.7,15.3,30.17,NNW,348,22.0,27.0,76,0.00,,,0.00,Wunderground v.1.15,2013-02-17 05:25:00,
2013-02-17 00:26:00,21.6,15.5,30.17,NNW,345,21.0,27.0,77,0.00,,,0.00,Wunderground v.1.15,2013-02-17 05:26:00,
2013-02-17 00:27:00,21.6,15.8,30.17,NNW,348,22.0,27.0,78,0.00,,,0.00,Wunderground v.1.15,2013-02-17 05:27:00,
2013-02-17 00:32:00,21.5,15.1,30.17,North,11,18.0,22.0,76,0.00,,,0.00,Wunderground v.1.15,2013-02-17 05:32:00,
2013-02-17 00:33:00,21.5,15.1,30.17,North,355,17.0,22.0,76,0.00,,,0.00,Wunderground v.1.15,2013-02-17 05:33:00,
2013-02-17 00:34:00,21.5,15.4,30.17,NNW,348,19.0,22.0,77,0.00,,,0.00,Wunderground v.1.15,2013-02-17 05:34:00,
2013-02-17 00:35:00,21.5,15.1,30.17,North,360,20.0,22.0,76,0.00,,,0.00,Wunderground v.1.15,2013-02-17 05:35:00,
2013-02-17 00:38:00,21.7,15.3,30.16,North,355,21.0,22.0,76,0.00,,,0.00,Wunderground v.1.15,2013-02-17 05:38:00,
2013-02-17 00:40:00,21.9,15.8,30.16,NNE,16,21.0,24.0,77,0.00,,,0.00,Wunderground v.1.15,2013-02-17 05:40:00,
2013-02-17 00:41:00,21.9,15.5,30.16,North,9,20.0,24.0,76,0.00,,,0.00,Wunderground v.1.15,2013-02-17 05:41:00,
2013-02-17 00:44:00,22.1,16.0,30.16,North,10,16.0,24.0,77,0.00,,,0.00,Wunderground v.1.15,2013-02-17 05:44:00,
2013-02-17 00:47:00,21.9,13.9,30.17,North,9,14.0,24.0,71,0.00,,,0.00,Wunderground v.1.15,2013-02-17 05:47:00,
2013-02-17 00:48:00,21.9,14.3,30.17,North,5,16.0,24.0,72,0.00,,,0.00,Wunderground v.1.15,2013-02-17 05:48:00,
2013-02-17 00:49:00,22.1,15.1,30.17,North,360,19.0,19.0,74,0.00,,,0.00,Wunderground v.1.15,2013-02-17 05:49:00,
2013-02-17 00:50:00,22.2,15.2,30.17,North,11,11.0,19.0,74,0.00,,,0.00,Wunderground v.1.15,2013-02-17 05:50:00,
2013-02-17 00:53:00,22.2,15.5,30.16,North,9,17.0,19.0,75,0.00,,,0.00,Wunderground v.1.15,2013-02-17 05:53:00,
2013-02-17 00:54:00,22.4,16.3,30.17,NNE,21,9.0,19.0,77,0.00,,,0.00,Wunderground v.1.15,2013-02-17 05:54:00,
2013-02-17 00:56:00,22.3,15.9,30.17,NE,43,14.0,19.0,76,0.00,,,0.00,Wunderground v.1.15,2013-02-17 05:56:00,
2013-02-17 00:58:00,22.3,16.2,30.18,NE,46,3.0,19.0,77,0.00,,,0.00,Wunderground v.1.15,2013-02-17 05:58:00,
2013-02-17 01:00:00,22.2,15.8,30.18,NNE,30,11.0,13.0,76,0.00,,,0.00,Wunderground v.1.15,2013-02-17 06:00:00,
2013-02-17 01:04:00,22.0,15.9,30.17,SSE,167,7.0,13.0,77,0.00,,,0.00,Wunderground v.1.15,2013-02-17 06:04:00,
2013-02-17 01:07:00,21.7,15.6,30.18,SSE,150,1.0,13.0,77,0.00,,,0.00,Wunderground v.1.15,2013-02-17 06:07:00,
2013-02-17 01:09:00,21.4,15.3,30.18,SSE,161,4.0,5.0,77,0.00,,,0.00,Wunderground v.1.15,2013-02-17 06:09:00,
2013-02-17 01:10:00,21.3,15.5,30.18,SSE,152,3.0,5.0,78,0.00,,,0.00,Wunderground v.1.15,2013-02-17 06:10:00,
2013-02-17 01:12:00,21.0,15.2,30.18,SE,140,5.0,5.0,78,0.00,,,0.00,Wunderground v.1.15,2013-02-17 06:12:00,
2013-02-17 01:15:00,20.6,15.1,30.18,SE,140,1.0,5.0,79,0.00,,,0.00,Wunderground v.1.15,2013-02-17 06:15:00,
2013-02-17 01:16:00,20.4,14.9,30.18,ESE,114,1.0,5.0,79,0.00,,,0.00,Wunderground v.1.15,2013-02-17 06:16:00,
2013-02-17 01:17:00,20.3,14.8,30.18,SSE,153,3.0,5.0,79,0.00,,,0.00,Wunderground v.1.15,2013-02-17 06:17:00,
2013-02-17 01:21:00,19.7,14.5,30.18,SSE,165,4.0,4.0,80,0.00,,,0.00,Wunderground v.1.15,2013-02-17 06:21:00,
2013-02-17 01:22:00,19.7,14.5,30.18,SSE,159,1.0,4.0,80,0.00,,,0.00,Wunderground v.1.15,2013-02-17 06:22:00,
2013-02-17 01:24:00,19.6,14.4,30.18,ESE,119,2.0,4.0,80,0.00,,,0.00,Wunderground v.1.15,2013-02-17 06:24:00,
2013-02-17 01:27:00,19.2,14.3,30.18,ESE,107,1.0,4.0,81,0.00,,,0.00,Wunderground v.1.15,2013-02-17 06:27:00,
2013-02-17 01:30:00,18.9,14.0,30.18,SSE,159,4.0,4.0,81,0.00,,,0.00,Wunderground v.1.15,2013-02-17 06:30:00,
2013-02-17 01:31:00,18.8,14.2,30.18,SSE,148,3.0,4.0,82,0.00,,,0.00,Wunderground v.1.15,2013-02-17 06:31:00,
2013-02-17 01:35:00,18.6,14.3,30.18,SE,144,5.0,5.0,83,0.00,,,0.00,Wunderground v.1.15,2013-02-17 06:35:00,
2013-02-17 01:36:00,18.5,14.2,30.18,SSE,153,5.0,5.0,83,0.00,,,0.00,Wunderground v.1.15,2013-02-17 06:36:00,
2013-02-17 01:37:00,18.4,14.1,30.18,SE,128,4.0,5.0,83,0.00,,,0.00,Wunderground v.1.15,2013-02-17 06:37:00,
2013-02-17 01:39:00,18.3,14.0,30.18,SE,136,2.0,3.0,83,0.00,,,0.00,Wunderground v.1.15,2013-02-17 06:39:00,
2013-02-17 01:41:00,18.2,13.9,30.18,SSE,155,4.0,4.0,83,0.00,,,0.00,Wunderground v.1.15,2013-02-17 06:41:00,
2013-02-17 01:42:00,18.2,14.2,30.18,SSE,161,6.0,6.0,84,0.00,,,0.00,Wunderground v.1.15,2013-02-17 06:42:00,
2013-02-17 01:43:00,18.1,14.1,30.18,SSE,155,3.0,6.0,84,0.00,,,0.00,Wunderground v.1.15,2013-02-17 06:43:00,
2013-02-17 01:45:00,18.0,14.0,30.18,SSE,165,3.0,6.0,84,0.00,,,0.00,Wunderground v.1.15,2013-02-17 06:45:00,
2013-02-17 01:46:00,18.0,14.0,30.18,SSE,159,0.0,6.0,84,0.00,,,0.00,Wunderground v.1.15,2013-02-17 06:46:00,
2013-02-17 01:47:00,18.0,16.1,30.18,SSE,159,0.0,6.0,92,0.00,,,0.00,Wunderground v.1.15,2013-02-17 06:47:00,
2013-02-17 01:51:00,17.8,14.1,30.18,SSE,157,1.0,3.0,85,0.00,,,0.00,Wunderground v.1.15,2013-02-17 06:51:00,
2013-02-17 01:52:00,17.8,14.1,30.18,SSE,157,0.0,3.0,85,0.00,,,0.00,Wunderground v.1.15,2013-02-17 06:52:00,
2013-02-17 01:53:00,17.8,14.1,30.18,SSE,148,1.0,3.0,85,0.00,,,0.00,Wunderground v.1.15,2013-02-17 06:53:00,
2013-02-17 01:54:00,17.8,14.1,30.18,SSE,159,2.0,3.0,85,0.00,,,0.00,Wunderground v.1.15,2013-02-17 06:54:00,
2013-02-17 01:57:00,17.7,14.0,30.18,SSE,159,0.0,3.0,85,0.00,,,0.00,Wunderground v.1.15,2013-02-17 06:57:00,
2013-02-17 02:00:00,17.7,14.0,30.18,SSE,159,1.0,1.0,85,0.00,,,0.00,Wunderground v.1.15,2013-02-17 07:00:00,
2013-02-17 02:02:00,17.6,13.9,30.18,SSE,159,0.0,2.0,85,0.00,,,0.00,Wunderground v.1.15,2013-02-17 07:02:00,
2013-02-17 02:05:00,17.6,13.9,30.18,SSE,157,1.0,3.0,85,0.00,,,0.00,Wunderground v.1.15,2013-02-17 07:05:00,
2013-02-17 02:07:00,17.5,14.0,30.18,SSE,156,1.0,3.0,86,0.00,,,0.00,Wunderground v.1.15,2013-02-17 07:07:00,
2013-02-17 02:10:00,17.5,14.0,30.18,SSE,159,1.0,4.0,86,0.00,,,0.00,Wunderground v.1.15,2013-02-17 07:10:00,
2013-02-17 02:12:00,17.5,14.0,30.18,SSE,164,3.0,4.0,86,0.00,,,0.00,Wunderground v.1.15,2013-02-17 07:12:00,
2013-02-17 02:15:00,17.5,14.0,30.18,SSE,160,2.0,4.0,86,0.00,,,0.00,Wunderground v.1.15,2013-02-17 07:15:00,
2013-02-17 02:17:00,17.5,14.0,30.18,SSE,160,2.0,4.0,86,0.00,,,0.00,Wunderground v.1.15,2013-02-17 07:17:00,
2013-02-17 02:20:00,17.4,13.9,30.18,SSE,163,2.0,3.0,86,0.00,,,0.00,Wunderground v.1.15,2013-02-17 07:20:00,
2013-02-17 02:21:00,17.4,13.9,30.18,SSE,163,1.0,3.0,86,0.00,,,0.00,Wunderground v.1.15,2013-02-17 07:21:00,
2013-02-17 02:22:00,17.4,14.2,30.18,SE,144,1.0,3.0,87,0.00,,,0.00,Wunderground v.1.15,2013-02-17 07:22:00,
2013-02-17 02:25:00,17.4,13.9,30.18,SSE,163,3.0,5.0,86,0.00,,,0.00,Wunderground v.1.15,2013-02-17 07:25:00,
2013-02-17 02:26:00,17.4,13.9,30.18,SSE,161,1.0,5.0,86,0.00,,,0.00,Wunderground v.1.15,2013-02-17 07:26:00,
2013-02-17 02:28:00,17.4,14.2,30.18,SSE,160,0.0,5.0,87,0.00,,,0.00,Wunderground v.1.15,2013-02-17 07:28:00,
2013-02-17 02:31:00,17.3,14.1,30.18,SE,134,2.0,5.0,87,0.00,,,0.00,Wunderground v.1.15,2013-02-17 07:31:00,
2013-02-17 02:33:00,17.3,14.1,30.18,SSE,161,3.0,5.0,87,0.00,,,0.00,Wunderground v.1.15,2013-02-17 07:33:00,
2013-02-17 02:36:00,17.3,14.1,30.19,SE,144,1.0,5.0,87,0.00,,,0.00,Wunderground v.1.15,2013-02-17 07:36:00,
2013-02-17 02:38:00,17.3,14.1,30.19,SE,134,5.0,5.0,87,0.00,,,0.00,Wunderground v.1.15,2013-02-17 07:38:00,
2013-02-17 02:41:00,17.2,14.0,30.19,SE,146,2.0,4.0,87,0.00,,,0.00,Wunderground v.1.15,2013-02-17 07:41:00,
2013-02-17 02:43:00,17.2,14.0,30.19,SE,146,1.0,5.0,87,0.00,,,0.00,Wunderground v.1.15,2013-02-17 07:43:00,
2013-02-17 02:46:00,17.2,14.0,30.19,SSE,154,2.0,5.0,87,0.00,,,0.00,Wunderground v.1.15,2013-02-17 07:46:00,
2013-02-17 02:47:00,17.2,14.0,30.19,ESE,103,1.0,5.0,87,0.00,,,0.00,Wunderground v.1.15,2013-02-17 07:47:00,
2013-02-17 02:48:00,17.1,13.9,30.19,ESE,121,2.0,5.0,87,0.00,,,0.00,Wunderground v.1.15,2013-02-17 07:48:00,
2013-02-17 02:52:00,17.1,14.2,30.19,SE,141,1.0,5.0,88,0.00,,,0.00,Wunderground v.1.15,2013-02-17 07:52:00,
2013-02-17 02:53:00,17.1,14.2,30.19,SSE,150,3.0,5.0,88,0.00,,,0.00,Wunderground v.1.15,2013-02-17 07:53:00,
2013-02-17 02:57:00,17.1,14.2,30.19,SSE,151,3.0,5.0,88,0.00,,,0.00,Wunderground v.1.15,2013-02-17 07:57:00,
2013-02-17 02:59:00,17.0,14.1,30.19,SSE,153,1.0,2.0,88,0.00,,,0.00,Wunderground v.1.15,2013-02-17 07:59:00,
2013-02-17 03:02:00,17.0,14.1,30.19,SSE,154,0.0,2.0,88,0.00,,,0.00,Wunderground v.1.15,2013-02-17 08:02:00,
2013-02-17 03:04:00,17.0,14.1,30.19,SSE,157,0.0,2.0,88,0.00,,,0.00,Wunderground v.1.15,2013-02-17 08:04:00,
2013-02-17 03:07:00,17.0,14.1,30.19,SSE,160,2.0,3.0,88,0.00,,,0.00,Wunderground v.1.15,2013-02-17 08:07:00,
2013-02-17 03:09:00,17.0,14.1,30.19,SSE,159,0.0,2.0,88,0.00,,,0.00,Wunderground v.1.15,2013-02-17 08:09:00,
2013-02-17 03:10:00,17.0,14.1,30.19,SSE,159,0.0,2.0,88,0.00,,,0.00,Wunderground v.1.15,2013-02-17 08:10:00,
2013-02-17 03:12:00,17.0,14.1,30.19,SSE,159,0.0,2.0,88,0.00,,,0.00,Wunderground v.1.15,2013-02-17 08:12:00,
2013-02-17 03:14:00,17.0,14.1,30.19,SSE,160,0.0,2.0,88,0.00,,,0.00,Wunderground v.1.15,2013-02-17 08:14:00,
2013-02-17 03:15:00,17.0,14.1,30.19,SSE,160,1.0,2.0,88,0.00,,,0.00,Wunderground v.1.15,2013-02-17 08:15:00,
2013-02-17 03:18:00,17.0,14.3,30.19,SSE,160,0.0,2.0,89,0.00,,,0.00,Wunderground v.1.15,2013-02-17 08:18:00,
2013-02-17 03:19:00,17.0,14.3,30.20,SSE,160,0.0,2.0,89,0.00,,,0.00,Wunderground v.1.15,2013-02-17 08:19:00,
2013-02-17 03:20:00,17.0,14.3,30.20,SSE,160,0.0,1.0,89,0.00,,,0.00,Wunderground v.1.15,2013-02-17 08:20:00,
2013-02-17 03:23:00,17.0,14.3,30.19,SSE,160,0.0,1.0,89,0.00,,,0.00,Wunderground v.1.15,2013-02-17 08:23:00,
2013-02-17 03:24:00,17.0,14.3,30.19,SSE,160,0.0,1.0,89,0.00,,,0.00,Wunderground v.1.15,2013-02-17 08:24:00,
2013-02-17 03:26:00,16.9,14.2,30.19,SSE,157,0.0,1.0,89,0.00,,,0.00,Wunderground v.1.15,2013-02-17 08:26:00,
2013-02-17 03:27:00,16.9,14.2,30.19,SSE,157,0.0,1.0,89,0.00,,,0.00,Wunderground v.1.15,2013-02-17 08:27:00,
2013-02-17 03:28:00,16.9,14.2,30.19,SSE,157,0.0,1.0,89,0.00,,,0.00,Wunderground v.1.15,2013-02-17 08:28:00,
2013-02-17 03:29:00,16.9,14.2,30.19,SSE,157,0.0,2.0,89,0.00,,,0.00,Wunderground v.1.15,2013-02-17 08:29:00,
2013-02-17 03:31:00,16.9,14.2,30.19,SSE,157,0.0,2.0,89,0.00,,,0.00,Wunderground v.1.15,2013-02-17 08:31:00,
2013-02-17 03:32:00,16.9,14.2,30.19,SSE,157,0.0,2.0,89,0.00,,,0.00,Wunderground v.1.15,2013-02-17 08:32:00,
2013-02-17 03:33:00,16.9,14.2,30.19,SSE,157,0.0,2.0,89,0.00,,,0.00,Wunderground v.1.15,2013-02-17 08:33:00,
2013-02-17 03:35:00,16.8,14.1,30.19,SSE,157,0.0,2.0,89,0.00,,,0.00,Wunderground v.1.15,2013-02-17 08:35:00,
2013-02-17 03:36:00,16.8,14.1,30.19,SSE,157,0.0,2.0,89,0.00,,,0.00,Wunderground v.1.15,2013-02-17 08:36:00,
2013-02-17 03:37:00,16.8,14.1,30.19,SSE,157,0.0,2.0,89,0.00,,,0.00,Wunderground v.1.15,2013-02-17 08:37:00,
2013-02-17 03:38:00,16.8,14.1,30.20,SSE,157,0.0,2.0,89,0.00,,,0.00,Wunderground v.1.15,2013-02-17 08:38:00,
2013-02-17 03:40:00,16.8,14.1,30.19,SSE,157,0.0,1.0,89,0.00,,,0.00,Wunderground v.1.15,2013-02-17 08:40:00,
2013-02-17 03:41:00,16.8,14.1,30.19,SSE,157,0.0,1.0,89,0.00,,,0.00,Wunderground v.1.15,2013-02-17 08:41:00,
2013-02-17 03:42:00,16.8,14.1,30.19,SSE,157,0.0,1.0,89,0.00,,,0.00,Wunderground v.1.15,2013-02-17 08:42:00,
2013-02-17 03:43:00,16.8,14.1,30.19,SSE,157,1.0,1.0,89,0.00,,,0.00,Wunderground v.1.15,2013-02-17 08:43:00,
2013-02-17 03:45:00,16.8,14.1,30.19,SSE,156,1.0,2.0,89,0.00,,,0.00,Wunderground v.1.15,2013-02-17 08:45:00,
2013-02-17 03:46:00,16.8,14.1,30.19,SSE,157,0.0,3.0,89,0.00,,,0.00,Wunderground v.1.15,2013-02-17 08:46:00,
2013-02-17 03:48:00,16.8,14.1,30.19,SSE,157,0.0,3.0,89,0.00,,,0.00,Wunderground v.1.15,2013-02-17 08:48:00,
2013-02-17 03:49:00,16.8,14.1,30.19,SSE,157,0.0,0.0,89,0.00,,,0.00,Wunderground v.1.15,2013-02-17 08:49:00,
2013-02-17 03:50:00,16.8,14.1,30.19,SSE,157,0.0,0.0,89,0.00,,,0.00,Wunderground v.1.15,2013-02-17 08:50:00,
2013-02-17 03:51:00,16.8,14.1,30.19,SSE,157,0.0,0.0,89,0.00,,,0.00,Wunderground v.1.15,2013-02-17 08:51:00,
2013-02-17 03:53:00,16.8,14.1,30.19,SSE,157,0.0,0.0,89,0.00,,,0.00,Wunderground v.1.15,2013-02-17 08:53:00,
2013-02-17 03:54:00,16.8,14.1,30.19,SSE,157,0.0,0.0,89,0.00,,,0.00,Wunderground v.1.15,2013-02-17 08:54:00,
2013-02-17 03:55:00,16.8,14.1,30.19,SSE,157,0.0,1.0,89,0.00,,,0.00,Wunderground v.1.15,2013-02-17 08:55:00,
2013-02-17 03:57:00,16.8,14.1,30.19,SSE,157,0.0,1.0,89,0.00,,,0.00,Wunderground v.1.15,2013-02-17 08:57:00,
2013-02-17 03:58:00,16.8,14.1,30.19,SSE,157,0.0,1.0,89,0.00,,,0.00,Wunderground v.1.15,2013-02-17 08:58:00,
2013-02-17 04:00:00,16.7,14.0,30.20,SSE,157,0.0,1.0,89,0.00,,,0.00,Wunderground v.1.15,2013-02-17 09:00:00,
2013-02-17 04:03:00,16.7,14.0,30.20,SSE,157,0.0,1.0,89,0.00,,,0.00,Wunderground v.1.15,2013-02-17 09:03:00,
2013-02-17 04:04:00,16.7,14.0,30.20,SSE,157,0.0,1.0,89,0.00,,,0.00,Wunderground v.1.15,2013-02-17 09:04:00,
2013-02-17 04:05:00,16.7,14.0,30.20,SSE,157,0.0,1.0,89,0.00,,,0.00,Wunderground v.1.15,2013-02-17 09:05:00,
2013-02-17 04:06:00,16.7,14.0,30.19,SSE,157,0.0,1.0,89,0.00,,,0.00,Wunderground v.1.15,2013-02-17 09:06:00,
2013-02-17 04:09:00,16.7,14.0,30.20,SSE,157,0.0,0.0,89,0.00,,,0.00,Wunderground v.1.15,2013-02-17 09:09:00,
2013-02-17 04:10:00,16.6,13.9,30.19,SSE,157,0.0,1.0,89,0.00,,,0.00,Wunderground v.1.15,2013-02-17 09:10:00,
2013-02-17 04:11:00,16.6,13.9,30.19,SSE,157,0.0,1.0,89,0.00,,,0.00,Wunderground v.1.15,2013-02-17 09:11:00,
2013-02-17 04:14:00,16.6,13.9,30.19,SSE,157,0.0,1.0,89,0.00,,,0.00,Wunderground v.1.15,2013-02-17 09:14:00,
2013-02-17 04:15:00,16.6,13.9,30.19,SSE,157,0.0,1.0,89,0.00,,,0.00,Wunderground v.1.15,2013-02-17 09:15:00,
2013-02-17 04:16:00,16.6,13.9,30.20,SSE,157,0.0,1.0,89,0.00,,,0.00,Wunderground v.1.15,2013-02-17 09:16:00,
2013-02-17 04:19:00,16.6,13.9,30.19,SSE,157,0.0,0.0,89,0.00,,,0.00,Wunderground v.1.15,2013-02-17 09:19:00,
2013-02-17 04:20:00,16.6,13.9,30.19,SSE,157,0.0,1.0,89,0.00,,,0.00,Wunderground v.1.15,2013-02-17 09:20:00,
2013-02-17 04:22:00,16.6,13.9,30.20,SSE,157,0.0,1.0,89,0.00,,,0.00,Wunderground v.1.15,2013-02-17 09:22:00,
2013-02-17 04:24:00,16.6,13.9,30.19,SSE,157,0.0,1.0,89,0.00,,,0.00,Wunderground v.1.15,2013-02-17 09:24:00,
2013-02-17 04:25:00,16.5,14.1,30.19,SSE,157,0.0,1.0,90,0.00,,,0.00,Wunderground v.1.15,2013-02-17 09:25:00,
2013-02-17 04:26:00,16.5,14.1,30.20,SSE,157,0.0,1.0,90,0.00,,,0.00,Wunderground v.1.15,2013-02-17 09:26:00,
2013-02-17 04:27:00,16.5,14.1,30.20,SSE,157,0.0,1.0,90,0.00,,,0.00,Wunderground v.1.15,2013-02-17 09:27:00,
2013-02-17 04:29:00,16.5,14.1,30.19,SSE,157,0.0,1.0,90,0.00,,,0.00,Wunderground v.1.15,2013-02-17 09:29:00,
2013-02-17 04:31:00,16.5,14.1,30.20,SSE,157,0.0,1.0,90,0.00,,,0.00,Wunderground v.1.15,2013-02-17 09:31:00,
2013-02-17 04:33:00,16.5,14.1,30.19,SSE,157,0.0,1.0,90,0.00,,,0.00,Wunderground v.1.15,2013-02-17 09:33:00,
2013-02-17 04:34:00,16.5,14.1,30.20,SSE,157,0.0,1.0,90,0.00,,,0.00,Wunderground v.1.15,2013-02-17 09:34:00,
2013-02-17 04:36:00,16.5,14.1,30.20,SSE,157,0.0,1.0,90,0.00,,,0.00,Wunderground v.1.15,2013-02-17 09:36:00,
2013-02-17 04:38:00,16.5,14.1,30.20,SSE,157,0.0,1.0,90,0.00,,,0.00,Wunderground v.1.15,2013-02-17 09:38:00,
2013-02-17 04:39:00,16.4,14.0,30.20,SSE,157,0.0,0.0,90,0.00,,,0.00,Wunderground v.1.15,2013-02-17 09:39:00,
2013-02-17 04:42:00,16.4,14.0,30.20,SSE,157,0.0,0.0,90,0.00,,,0.00,Wunderground v.1.15,2013-02-17 09:42:00,
2013-02-17 04:43:00,16.4,14.0,30.20,SSE,157,0.0,0.0,90,0.00,,,0.00,Wunderground v.1.15,2013-02-17 09:43:00,
2013-02-17 04:45:00,16.4,14.0,30.20,SSE,157,0.0,0.0,90,0.00,,,0.00,Wunderground v.1.15,2013-02-17 09:45:00,
2013-02-17 04:47:00,16.4,14.0,30.20,SSE,157,0.0,0.0,90,0.00,,,0.00,Wunderground v.1.15,2013-02-17 09:47:00,
2013-02-17 04:49:00,16.4,14.0,30.20,SSE,157,0.0,0.0,90,0.00,,,0.00,Wunderground v.1.15,2013-02-17 09:49:00,
2013-02-17 04:50:00,16.4,14.0,30.20,SSE,157,0.0,0.0,90,0.00,,,0.00,Wunderground v.1.15,2013-02-17 09:50:00,
2013-02-17 04:52:00,16.4,14.0,30.20,SSE,157,0.0,1.0,90,0.00,,,0.00,Wunderground v.1.15,2013-02-17 09:52:00,
2013-02-17 04:54:00,16.3,13.9,30.20,SSE,157,0.0,1.0,90,0.00,,,0.00,Wunderground v.1.15,2013-02-17 09:54:00,
2013-02-17 04:55:00,16.3,13.9,30.20,SSE,157,0.0,1.0,90,0.00,,,0.00,Wunderground v.1.15,2013-02-17 09:55:00,
2013-02-17 04:57:00,16.3,13.9,30.20,SSE,157,0.0,1.0,90,0.00,,,0.00,Wunderground v.1.15,2013-02-17 09:57:00,
2013-02-17 04:59:00,16.3,13.9,30.20,SSE,157,0.0,1.0,90,0.00,,,0.00,Wunderground v.1.15,2013-02-17 09:59:00,
2013-02-17 05:00:00,16.3,13.9,30.20,SSE,157,0.0,1.0,90,0.00,,,0.00,Wunderground v.1.15,2013-02-17 10:00:00,
2013-02-17 05:02:00,16.3,13.9,30.20,SSE,157,0.0,1.0,90,0.00,,,0.00,Wunderground v.1.15,2013-02-17 10:02:00,
2013-02-17 05:05:00,16.3,13.9,30.20,SSE,157,0.0,1.0,90,0.00,,,0.00,Wunderground v.1.15,2013-02-17 10:05:00,
2013-02-17 05:07:00,16.2,13.8,30.20,SSE,157,0.0,1.0,90,0.00,,,0.00,Wunderground v.1.15,2013-02-17 10:07:00,
2013-02-17 05:10:00,16.2,13.8,30.20,SSE,157,0.0,1.0,90,0.00,,,0.00,Wunderground v.1.15,2013-02-17 10:10:00,
2013-02-17 05:11:00,16.2,13.8,30.20,SSE,157,1.0,1.0,90,0.00,,,0.00,Wunderground v.1.15,2013-02-17 10:11:00,
2013-02-17 05:12:00,16.2,13.8,30.20,SSE,157,0.0,2.0,90,0.00,,,0.00,Wunderground v.1.15,2013-02-17 10:12:00,
2013-02-17 05:15:00,16.2,13.8,30.20,SSE,157,0.0,2.0,90,0.00,,,0.00,Wunderground v.1.15,2013-02-17 10:15:00,
2013-02-17 05:16:00,16.2,13.8,30.20,SSE,157,1.0,2.0,90,0.00,,,0.00,Wunderground v.1.15,2013-02-17 10:16:00,
2013-02-17 05:17:00,16.2,13.8,30.20,SSE,157,0.0,2.0,90,0.00,,,0.00,Wunderground v.1.15,2013-02-17 10:17:00,
2013-02-17 05:20:00,16.2,13.8,30.20,SSE,157,0.0,1.0,90,0.00,,,0.00,Wunderground v.1.15,2013-02-17 10:20:00,
2013-02-17 05:21:00,16.2,13.8,30.20,SSE,157,0.0,1.0,90,0.00,,,0.00,Wunderground v.1.15,2013-02-17 10:21:00,
2013-02-17 05:22:00,16.1,13.7,30.20,SSE,157,0.0,1.0,90,0.00,,,0.00,Wunderground v.1.15,2013-02-17 10:22:00,
2013-02-17 05:25:00,16.1,13.7,30.20,SSE,157,0.0,1.0,90,0.00,,,0.00,Wunderground v.1.15,2013-02-17 10:25:00,
2013-02-17 05:26:00,16.1,13.7,30.20,SSE,157,0.0,1.0,90,0.00,,,0.00,Wunderground v.1.15,2013-02-17 10:26:00,
2013-02-17 05:27:00,16.1,13.7,30.20,SSE,157,0.0,1.0,90,0.00,,,0.00,Wunderground v.1.15,2013-02-17 10:27:00,
2013-02-17 05:28:00,16.1,13.7,30.20,SSE,157,0.0,1.0,90,0.00,,,0.00,Wunderground v.1.15,2013-02-17 10:28:00,
2013-02-17 05:30:00,16.1,13.7,30.20,SSE,157,0.0,1.0,90,0.00,,,0.00,Wunderground v.1.15,2013-02-17 10:30:00,
2013-02-17 05:32:00,16.1,13.7,30.20,SSE,157,1.0,1.0,90,0.00,,,0.00,Wunderground v.1.15,2013-02-17 10:32:00,
2013-02-17 05:33:00,16.1,13.7,30.21,SSE,157,0.0,1.0,90,0.00,,,0.00,Wunderground v.1.15,2013-02-17 10:33:00,
2013-02-17 05:36:00,16.1,13.7,30.21,SSE,157,0.0,1.0,90,0.00,,,0.00,Wunderground v.1.15,2013-02-17 10:36:00,
2013-02-17 05:37:00,16.1,13.7,30.21,SSE,157,0.0,1.0,90,0.00,,,0.00,Wunderground v.1.15,2013-02-17 10:37:00,
2013-02-17 05:38:00,16.1,13.7,30.21,SSE,157,0.0,1.0,90,0.00,,,0.00,Wunderground v.1.15,2013-02-17 10:38:00,
2013-02-17 05:41:00,16.1,13.7,30.21,SSE,155,0.0,2.0,90,0.00,,,0.00,Wunderground v.1.15,2013-02-17 10:41:00,
2013-02-17 05:42:00,16.1,13.7,30.21,SSE,155,0.0,2.0,90,0.00,,,0.00,Wunderground v.1.15,2013-02-17 10:42:00,
2013-02-17 05:43:00,16.1,13.7,30.21,SSE,155,1.0,2.0,90,0.00,,,0.00,Wunderground v.1.15,2013-02-17 10:43:00,
2013-02-17 05:46:00,16.0,13.6,30.22,SSE,155,0.0,2.0,90,0.00,,,0.00,Wunderground v.1.15,2013-02-17 10:46:00,
2013-02-17 05:47:00,16.1,13.7,30.22,SSE,155,0.0,2.0,90,0.00,,,0.00,Wunderground v.1.15,2013-02-17 10:47:00,
2013-02-17 05:48:00,16.1,13.7,30.21,SSE,155,0.0,2.0,90,0.00,,,0.00,Wunderground v.1.15,2013-02-17 10:48:00,
2013-02-17 05:49:00,16.1,13.7,30.21,SSE,155,0.0,0.0,90,0.00,,,0.00,Wunderground v.1.15,2013-02-17 10:49:00,
2013-02-17 05:51:00,16.0,13.6,30.21,SSE,157,2.0,2.0,90,0.00,,,0.00,Wunderground v.1.15,2013-02-17 10:51:00,
2013-02-17 05:53:00,16.1,13.7,30.21,SSE,157,1.0,2.0,90,0.00,,,0.00,Wunderground v.1.15,2013-02-17 10:53:00,
2013-02-17 05:54:00,16.0,13.6,30.21,SSE,157,0.0,2.0,90,0.00,,,0.00,Wunderground v.1.15,2013-02-17 10:54:00,
2013-02-17 05:57:00,16.0,13.6,30.21,SSE,157,0.0,2.0,90,0.00,,,0.00,Wunderground v.1.15,2013-02-17 10:57:00,
2013-02-17 05:58:00,16.0,13.6,30.21,SSE,156,1.0,2.0,90,0.00,,,0.00,Wunderground v.1.15,2013-02-17 10:58:00,
2013-02-17 05:59:00,16.0,13.6,30.21,SSE,157,1.0,1.0,90,0.00,,,0.00,Wunderground v.1.15,2013-02-17 10:59:00,
2013-02-17 06:02:00,16.0,13.6,30.21,SSE,157,0.0,2.0,90,0.00,,,0.00,Wunderground v.1.15,2013-02-17 11:02:00,
2013-02-17 06:04:00,16.0,13.6,30.21,SSE,157,0.0,2.0,90,0.00,,,0.00,Wunderground v.1.15,2013-02-17 11:04:00,
2013-02-17 06:05:00,16.0,13.6,30.21,SSE,157,1.0,2.0,90,0.00,,,0.00,Wunderground v.1.15,2013-02-17 11:05:00,
2013-02-17 06:07:00,16.0,13.8,30.22,SSE,157,0.0,2.0,91,0.00,,,0.00,Wunderground v.1.15,2013-02-17 11:07:00,
2013-02-17 06:09:00,16.1,13.9,30.22,SSE,157,0.0,0.0,91,0.00,,,0.00,Wunderground v.1.15,2013-02-17 11:09:00,
2013-02-17 06:10:00,16.1,13.9,30.22,SSE,157,0.0,0.0,91,0.00,,,0.00,Wunderground v.1.15,2013-02-17 11:10:00,
2013-02-17 06:12:00,16.1,13.9,30.22,SSE,157,0.0,1.0,91,0.00,,,0.00,Wunderground v.1.15,2013-02-17 11:12:00,
2013-02-17 06:14:00,16.1,13.9,30.22,SSE,157,0.0,2.0,91,0.00,,,0.00,Wunderground v.1.15,2013-02-17 11:14:00,
2013-02-17 06:15:00,16.1,13.9,30.22,SSE,157,0.0,2.0,91,0.00,,,0.00,Wunderground v.1.15,2013-02-17 11:15:00,
2013-02-17 06:17:00,16.1,13.9,30.22,SSE,157,0.0,2.0,91,0.00,,,0.00,Wunderground v.1.15,2013-02-17 11:17:00,
2013-02-17 06:19:00,16.1,13.9,30.22,SSE,157,0.0,0.0,91,0.00,,,0.00,Wunderground v.1.15,2013-02-17 11:19:00,
2013-02-17 06:20:00,16.1,13.9,30.22,SSE,157,0.0,0.0,91,0.00,,,0.00,Wunderground v.1.15,2013-02-17 11:20:00,
2013-02-17 06:21:00,16.1,13.9,30.22,SSE,157,0.0,0.0,91,0.00,,,0.00,Wunderground v.1.15,2013-02-17 11:21:00,
2013-02-17 06:22:00,16.0,13.8,30.22,SSE,157,0.0,0.0,91,0.00,,,0.00,Wunderground v.1.15,2013-02-17 11:22:00,
2013-02-17 06:24:00,16.0,13.8,30.22,SSE,157,0.0,1.0,91,0.00,,,0.00,Wunderground v.1.15,2013-02-17 11:24:00,
2013-02-17 06:26:00,16.0,13.8,30.22,SSE,157,0.0,1.0,91,0.00,,,0.00,Wunderground v.1.15,2013-02-17 11:26:00,
2013-02-17 06:28:00,16.0,13.8,30.22,SSE,157,0.0,1.0,91,0.00,,,0.00,Wunderground v.1.15,2013-02-17 11:28:00,
2013-02-17 06:30:00,16.0,13.8,30.22,SSE,157,0.0,0.0,91,0.00,,,0.00,Wunderground v.1.15,2013-02-17 11:30:00,
2013-02-17 06:31:00,16.0,13.8,30.22,SSE,157,0.0,2.0,91,0.00,,,0.00,Wunderground v.1.15,2013-02-17 11:31:00,
2013-02-17 06:33:00,16.0,13.8,30.22,SSE,157,0.0,2.0,91,0.00,,,0.00,Wunderground v.1.15,2013-02-17 11:33:00,
2013-02-17 06:36:00,16.0,13.8,30.22,SSE,157,0.0,2.0,91,0.00,,,0.00,Wunderground v.1.15,2013-02-17 11:36:00,
2013-02-17 06:38:00,16.0,13.8,30.22,SSE,157,0.0,2.0,91,0.00,,,0.00,Wunderground v.1.15,2013-02-17 11:38:00,
2013-02-17 06:41:00,16.0,13.8,30.22,SSE,157,0.0,1.0,91,0.00,,,0.00,Wunderground v.1.15,2013-02-17 11:41:00,
2013-02-17 06:42:00,16.0,13.8,30.23,SSE,157,0.0,1.0,91,0.00,,,0.00,Wunderground v.1.15,2013-02-17 11:42:00,
2013-02-17 06:43:00,15.9,13.7,30.23,SSE,157,0.0,1.0,91,0.00,,,0.00,Wunderground v.1.15,2013-02-17 11:43:00,
2013-02-17 06:46:00,15.9,13.7,30.23,SSE,157,0.0,1.0,91,0.00,,,0.00,Wunderground v.1.15,2013-02-17 11:46:00,
2013-02-17 06:47:00,15.9,13.7,30.23,SSE,156,2.0,2.0,91,0.00,,,0.00,Wunderground v.1.15,2013-02-17 11:47:00,
2013-02-17 06:48:00,15.9,13.7,30.23,SSE,157,0.0,2.0,91,0.00,,,0.00,Wunderground v.1.15,2013-02-17 11:48:00,
2013-02-17 06:51:00,15.9,13.7,30.23,SSE,157,0.0,0.0,91,0.00,,,0.00,Wunderground v.1.15,2013-02-17 11:51:00,
2013-02-17 06:52:00,15.9,13.7,30.23,SSE,157,0.0,0.0,91,0.00,,,0.00,Wunderground v.1.15,2013-02-17 11:52:00,
2013-02-17 06:53:00,15.9,13.7,30.23,SSE,157,0.0,0.0,91,0.00,,,0.00,Wunderground v.1.15,2013-02-17 11:53:00,
2013-02-17 06:56:00,15.9,13.7,30.23,SSE,157,0.0,1.0,91,0.00,,,0.00,Wunderground v.1.15,2013-02-17 11:56:00,
2013-02-17 06:57:00,15.9,13.7,30.23,SSE,157,0.0,1.0,91,0.00,,,0.00,Wunderground v.1.15,2013-02-17 11:57:00,
2013-02-17 06:59:00,15.9,13.7,30.23,SSE,157,0.0,0.0,91,0.00,,,0.00,Wunderground v.1.15,2013-02-17 11:59:00,
2013-02-17 07:01:00,15.8,13.6,30.23,SSE,157,0.0,1.0,91,0.00,,,0.00,Wunderground v.1.15,2013-02-17 12:01:00,
2013-02-17 07:02:00,15.9,13.7,30.23,SSE,157,0.0,1.0,91,0.00,,,0.00,Wunderground v.1.15,2013-02-17 12:02:00,
2013-02-17 07:04:00,15.8,13.6,30.23,SSE,157,0.0,1.0,91,0.00,,,0.00,Wunderground v.1.15,2013-02-17 12:04:00,
2013-02-17 07:06:00,15.8,13.6,30.23,SSE,157,1.0,2.0,91,0.00,,,0.00,Wunderground v.1.15,2013-02-17 12:06:00,
2013-02-17 07:07:00,15.8,13.6,30.23,SSE,157,0.0,2.0,91,0.00,,,0.00,Wunderground v.1.15,2013-02-17 12:07:00,
2013-02-17 07:09:00,15.8,13.6,30.23,SSE,157,1.0,1.0,91,0.00,,,0.00,Wunderground v.1.15,2013-02-17 12:09:00,
2013-02-17 07:11:00,15.8,13.6,30.23,SSE,156,0.0,2.0,91,0.00,,,0.00,Wunderground v.1.15,2013-02-17 12:11:00,
2013-02-17 07:12:00,15.8,13.6,30.23,SSE,157,0.0,2.0,91,0.00,,,0.00,Wunderground v.1.15,2013-02-17 12:12:00,
2013-02-17 07:13:00,15.8,13.6,30.23,SSE,156,0.0,2.0,91,0.00,,,0.00,Wunderground v.1.15,2013-02-17 12:13:00,
2013-02-17 07:14:00,15.8,13.6,30.23,SSE,157,0.0,2.0,91,0.00,,,0.00,Wunderground v.1.15,2013-02-17 12:14:00,
2013-02-17 07:17:00,15.8,13.6,30.23,SSE,157,1.0,2.0,91,0.00,,,0.00,Wunderground v.1.15,2013-02-17 12:17:00,
2013-02-17 07:18:00,15.8,13.6,30.23,SSE,157,0.0,2.0,91,0.00,,,0.00,Wunderground v.1.15,2013-02-17 12:18:00,
2013-02-17 07:19:00,15.8,13.6,30.23,SSE,157,0.0,1.0,91,0.00,,,0.00,Wunderground v.1.15,2013-02-17 12:19:00,
2013-02-17 07:22:00,15.8,13.6,30.23,SSE,157,1.0,1.0,91,0.00,,,0.00,Wunderground v.1.15,2013-02-17 12:22:00,
2013-02-17 07:23:00,15.8,13.6,30.23,SSE,157,1.0,2.0,91,0.00,,,0.00,Wunderground v.1.15,2013-02-17 12:23:00,
2013-02-17 07:25:00,15.8,13.6,30.23,SSE,157,1.0,2.0,91,0.00,,,0.00,Wunderground v.1.15,2013-02-17 12:25:00,
2013-02-17 07:27:00,15.8,13.6,30.23,SSE,156,0.0,2.0,91,0.00,,,0.00,Wunderground v.1.15,2013-02-17 12:27:00,
2013-02-17 07:29:00,15.8,13.6,30.23,SSE,157,0.0,1.0,91,0.00,,,0.00,Wunderground v.1.15,2013-02-17 12:29:00,
2013-02-17 07:30:00,15.8,13.6,30.23,SSE,157,0.0,1.0,91,0.00,,,0.00,Wunderground v.1.15,2013-02-17 12:30:00,
2013-02-17 07:32:00,15.8,13.6,30.23,SSE,157,0.0,1.0,91,0.00,,,0.00,Wunderground v.1.15,2013-02-17 12:32:00,
2013-02-17 07:33:00,15.8,13.6,30.23,SSE,157,0.0,1.0,91,0.00,,,0.00,Wunderground v.1.15,2013-02-17 12:33:00,
2013-02-17 07:34:00,15.8,13.6,30.23,SSE,157,0.0,1.0,91,0.00,,,0.00,Wunderground v.1.15,2013-02-17 12:34:00,
2013-02-17 07:36:00,15.8,13.6,30.23,SSE,157,0.0,1.0,91,0.00,,,0.00,Wunderground v.1.15,2013-02-17 12:36:00,
2013-02-17 07:37:00,15.7,13.5,30.23,SSE,157,0.0,1.0,91,0.00,,,0.00,Wunderground v.1.15,2013-02-17 12:37:00,
2013-02-17 07:38:00,15.8,13.6,30.23,SSE,157,0.0,1.0,91,0.00,,,0.00,Wunderground v.1.15,2013-02-17 12:38:00,
2013-02-17 07:39:00,15.8,13.6,30.23,SSE,157,0.0,1.0,91,0.00,,,0.00,Wunderground v.1.15,2013-02-17 12:39:00,
2013-02-17 07:41:00,15.8,13.6,30.23,SSE,157,0.0,2.0,91,0.00,,,0.00,Wunderground v.1.15,2013-02-17 12:41:00,
2013-02-17 07:42:00,15.8,13.6,30.23,SSE,157,0.0,2.0,91,0.00,,,0.00,Wunderground v.1.15,2013-02-17 12:42:00,
2013-02-17 07:44:00,15.8,13.6,30.24,SSE,157,0.0,2.0,91,0.00,,,0.00,Wunderground v.1.15,2013-02-17 12:44:00,
2013-02-17 07:46:00,15.8,13.6,30.24,SSE,157,0.0,2.0,91,0.00,,,0.00,Wunderground v.1.15,2013-02-17 12:46:00,
2013-02-17 07:47:00,15.8,13.6,30.24,SSE,157,1.0,2.0,91,0.00,,,0.00,Wunderground v.1.15,2013-02-17 12:47:00,
2013-02-17 07:49:00,15.8,13.6,30.24,SSE,157,0.0,0.0,91,0.00,,,0.00,Wunderground v.1.15,2013-02-17 12:49:00,
2013-02-17 07:50:00,15.8,13.6,30.24,SSE,157,0.0,0.0,91,0.00,,,0.00,Wunderground v.1.15,2013-02-17 12:50:00,
2013-02-17 07:51:00,15.8,13.6,30.24,SSE,157,0.0,0.0,91,0.00,,,0.00,Wunderground v.1.15,2013-02-17 12:51:00,
2013-02-17 07:52:00,15.8,13.6,30.24,SSE,157,0.0,0.0,91,0.00,,,0.00,Wunderground v.1.15,2013-02-17 12:52:00,
2013-02-17 07:54:00,15.8,13.6,30.24,SSE,157,1.0,1.0,91,0.00,,,0.00,Wunderground v.1.15,2013-02-17 12:54:00,
2013-02-17 07:55:00,15.8,13.6,30.24,SSE,157,0.0,2.0,91,0.00,,,0.00,Wunderground v.1.15,2013-02-17 12:55:00,
2013-02-17 07:56:00,15.8,13.6,30.24,SSE,157,0.0,2.0,91,0.00,,,0.00,Wunderground v.1.15,2013-02-17 12:56:00,
2013-02-17 07:58:00,15.8,13.6,30.24,SSE,157,0.0,2.0,91,0.00,,,0.00,Wunderground v.1.15,2013-02-17 12:58:00,
2013-02-17 07:59:00,15.8,13.6,30.24,SSE,156,0.0,0.0,91,0.00,,,0.00,Wunderground v.1.15,2013-02-17 12:59:00,
2013-02-17 08:01:00,15.8,13.6,30.24,SSE,157,0.0,1.0,91,0.00,,,0.00,Wunderground v.1.15,2013-02-17 13:01:00,
2013-02-17 08:02:00,15.8,13.6,30.24,SSE,157,0.0,1.0,91,0.00,,,0.00,Wunderground v.1.15,2013-02-17 13:02:00,
2013-02-17 08:03:00,15.9,13.7,30.24,SSE,157,0.0,2.0,91,0.00,,,0.00,Wunderground v.1.15,2013-02-17 13:03:00,
2013-02-17 08:04:00,15.9,13.7,30.24,SSE,157,1.0,2.0,91,0.00,,,0.00,Wunderground v.1.15,2013-02-17 13:04:00,
2013-02-17 08:07:00,15.9,13.7,30.25,SSE,157,0.0,2.0,91,0.00,,,0.00,Wunderground v.1.15,2013-02-17 13:07:00,
2013-02-17 08:08:00,15.9,13.7,30.25,SSE,157,1.0,2.0,91,0.00,,,0.00,Wunderground v.1.15,2013-02-17 13:08:00,
2013-02-17 08:10:00,15.9,13.7,30.25,SSE,157,0.0,2.0,91,0.00,,,0.00,Wunderground v.1.15,2013-02-17 13:10:00,
2013-02-17 08:12:00,15.9,13.7,30.25,SSE,157,2.0,2.0,91,0.00,,,0.00,Wunderground v.1.15,2013-02-17 13:12:00,
2013-02-17 08:14:00,16.0,13.8,30.25,SSE,157,0.0,2.0,91,0.00,,,0.00,Wunderground v.1.15,2013-02-17 13:14:00,
2013-02-17 08:15:00,16.0,13.8,30.25,SSE,157,0.0,2.0,91,0.00,,,0.00,Wunderground v.1.15,2013-02-17 13:15:00,
2013-02-17 08:17:00,16.0,13.8,30.25,SSE,157,0.0,2.0,91,0.00,,,0.00,Wunderground v.1.15,2013-02-17 13:17:00,
2013-02-17 08:19:00,16.1,13.9,30.25,SSE,157,0.0,0.0,91,0.00,,,0.00,Wunderground v.1.15,2013-02-17 13:19:00,
2013-02-17 08:21:00,16.1,13.9,30.25,SSE,157,0.0,1.0,91,0.00,,,0.00,Wunderground v.1.15,2013-02-17 13:21:00,
2013-02-17 08:22:00,16.1,13.9,30.25,SSE,157,0.0,1.0,91,0.00,,,0.00,Wunderground v.1.15,2013-02-17 13:22:00,
2013-02-17 08:24:00,16.1,13.9,30.25,SSE,157,0.0,1.0,91,0.00,,,0.00,Wunderground v.1.15,2013-02-17 13:24:00,
2013-02-17 08:26:00,16.2,14.0,30.25,SSE,157,0.0,1.0,91,0.00,,,0.00,Wunderground v.1.15,2013-02-17 13:26:00,
2013-02-17 08:27:00,16.2,14.0,30.25,SSE,157,0.0,1.0,91,0.00,,,0.00,Wunderground v.1.15,2013-02-17 13:27:00,
2013-02-17 08:28:00,16.2,14.0,30.25,SSE,157,0.0,1.0,91,0.00,,,0.00,Wunderground v.1.15,2013-02-17 13:28:00,
2013-02-17 08:30:00,16.3,14.1,30.25,SSE,157,0.0,1.0,91,0.00,,,0.00,Wunderground v.1.15,2013-02-17 13:30:00,
2013-02-17 08:31:00,16.4,14.2,30.25,SSE,157,0.0,1.0,91,0.00,,,0.00,Wunderground v.1.15,2013-02-17 13:31:00,
2013-02-17 08:33:00,16.4,14.2,30.25,SSE,157,0.0,1.0,91,0.00,,,0.00,Wunderground v.1.15,2013-02-17 13:33:00,
2013-02-17 08:35:00,16.5,14.3,30.25,SSE,157,0.0,1.0,91,0.00,,,0.00,Wunderground v.1.15,2013-02-17 13:35:00,
2013-02-17 08:36:00,16.5,14.3,30.25,SSE,157,0.0,2.0,91,0.00,,,0.00,Wunderground v.1.15,2013-02-17 13:36:00,
2013-02-17 08:38:00,16.6,14.4,30.25,SSE,157,1.0,2.0,91,0.00,,,0.00,Wunderground v.1.15,2013-02-17 13:38:00,
2013-02-17 08:40:00,16.6,14.4,30.24,SSE,157,2.0,3.0,91,0.00,,,0.00,Wunderground v.1.15,2013-02-17 13:40:00,
2013-02-17 08:41:00,16.7,14.5,30.25,SSE,157,1.0,3.0,91,0.00,,,0.00,Wunderground v.1.15,2013-02-17 13:41:00,
2013-02-17 08:43:00,16.8,14.6,30.25,SSE,157,0.0,3.0,91,0.00,,,0.00,Wunderground v.1.15,2013-02-17 13:43:00,
2013-02-17 08:46:00,16.8,14.6,30.25,SSE,157,0.0,3.0,91,0.00,,,0.00,Wunderground v.1.15,2013-02-17 13:46:00,
2013-02-17 08:47:00,16.8,14.6,30.25,SSE,157,0.0,3.0,91,0.00,,,0.00,Wunderground v.1.15,2013-02-17 13:47:00,
2013-02-17 08:48:00,16.8,14.6,30.25,SSE,157,0.0,3.0,91,0.00,,,0.00,Wunderground v.1.15,2013-02-17 13:48:00,
2013-02-17 08:49:00,16.9,14.7,30.25,SSE,157,2.0,2.0,91,0.00,,,0.00,Wunderground v.1.15,2013-02-17 13:49:00,
2013-02-17 08:51:00,17.0,14.8,30.25,SSE,157,0.0,2.0,91,0.00,,,0.00,Wunderground v.1.15,2013-02-17 13:51:00,
2013-02-17 08:52:00,17.0,14.8,30.25,SSE,156,0.0,2.0,91,0.00,,,0.00,Wunderground v.1.15,2013-02-17 13:52:00,
2013-02-17 08:54:00,17.1,14.9,30.25,SSE,157,0.0,2.0,91,0.00,,,0.00,Wunderground v.1.15,2013-02-17 13:54:00,
2013-02-17 08:56:00,17.1,14.9,30.25,SSE,158,0.0,2.0,91,0.00,,,0.00,Wunderground v.1.15,2013-02-17 13:56:00,
2013-02-17 08:57:00,17.1,14.9,30.25,SSE,158,0.0,2.0,91,0.00,,,0.00,Wunderground v.1.15,2013-02-17 13:57:00,
2013-02-17 08:59:00,17.2,15.0,30.25,SSE,168,0.0,1.0,91,0.00,,,0.00,Wunderground v.1.15,2013-02-17 13:59:00,
2013-02-17 09:00:00,17.3,15.1,30.25,SSE,167,1.0,2.0,91,0.00,,,0.00,Wunderground v.1.15,2013-02-17 14:00:00,
2013-02-17 09:01:00,17.3,15.1,30.25,SSE,167,1.0,2.0,91,0.00,,,0.00,Wunderground v.1.15,2013-02-17 14:01:00,
2013-02-17 09:02:00,17.3,15.1,30.25,SSE,167,0.0,2.0,91,0.00,,,0.00,Wunderground v.1.15,2013-02-17 14:02:00,
2013-02-17 09:04:00,17.4,15.2,30.25,SSE,167,2.0,3.0,91,0.00,,,0.00,Wunderground v.1.15,2013-02-17 14:04:00,
2013-02-17 09:05:00,17.5,15.3,30.25,SSE,167,1.0,3.0,91,0.00,,,0.00,Wunderground v.1.15,2013-02-17 14:05:00,
2013-02-17 09:07:00,17.6,15.4,30.25,SSE,166,0.0,3.0,91,0.00,,,0.00,Wunderground v.1.15,2013-02-17 14:07:00,
2013-02-17 09:09:00,17.7,15.5,30.25,SSE,167,2.0,3.0,91,0.00,,,0.00,Wunderground v.1.15,2013-02-17 14:09:00,
2013-02-17 09:11:00,17.7,15.5,30.25,SSE,167,0.0,3.0,91,0.00,,,0.00,Wunderground v.1.15,2013-02-17 14:11:00,
2013-02-17 09:12:00,17.8,15.6,30.25,SSE,167,0.0,3.0,91,0.00,,,0.00,Wunderground v.1.15,2013-02-17 14:12:00,
2013-02-17 09:14:00,17.9,15.7,30.25,SSE,167,0.0,3.0,91,0.00,,,0.00,Wunderground v.1.15,2013-02-17 14:14:00,
2013-02-17 09:16:00,18.0,15.8,30.25,SSE,167,0.0,3.0,91,0.00,,,0.00,Wunderground v.1.15,2013-02-17 14:16:00,
2013-02-17 09:17:00,18.0,15.8,30.25,SSE,167,1.0,3.0,91,0.00,,,0.00,Wunderground v.1.15,2013-02-17 14:17:00,
2013-02-17 09:19:00,18.1,15.9,30.25,SSE,166,0.0,2.0,91,0.00,,,0.00,Wunderground v.1.15,2013-02-17 14:19:00,
2013-02-17 09:21:00,18.2,16.0,30.25,SSE,165,0.0,2.0,91,0.00,,,0.00,Wunderground v.1.15,2013-02-17 14:21:00,
2013-02-17 09:22:00,18.2,16.0,30.25,SSE,166,1.0,2.0,91,0.00,,,0.00,Wunderground v.1.15,2013-02-17 14:22:00,
2013-02-17 09:25:00,18.3,16.1,30.25,South,169,2.0,4.0,91,0.00,,,0.00,Wunderground v.1.15,2013-02-17 14:25:00,
2013-02-17 09:27:00,18.4,16.2,30.25,SSE,167,1.0,4.0,91,0.00,,,0.00,Wunderground v.1.15,2013-02-17 14:27:00,
2013-02-17 09:30:00,18.5,16.1,30.25,SSE,167,1.0,3.0,90,0.00,,,0.00,Wunderground v.1.15,2013-02-17 14:30:00,
2013-02-17 09:32:00,18.6,16.2,30.25,SSE,167,0.0,3.0,90,0.00,,,0.00,Wunderground v.1.15,2013-02-17 14:32:00,
2013-02-17 09:33:00,18.6,16.2,30.26,SSE,167,0.0,3.0,90,0.00,,,0.00,Wunderground v.1.15,2013-02-17 14:33:00,
2013-02-17 09:35:00,18.7,16.3,30.26,SSE,167,0.0,3.0,90,0.00,,,0.00,Wunderground v.1.15,2013-02-17 14:35:00,
2013-02-17 09:37:00,18.8,16.4,30.26,SSE,166,1.0,3.0,90,0.00,,,0.00,Wunderground v.1.15,2013-02-17 14:37:00,
2013-02-17 09:38:00,18.8,16.4,30.26,SSE,165,0.0,3.0,90,0.00,,,0.00,Wunderground v.1.15,2013-02-17 14:38:00,
2013-02-17 09:41:00,18.9,16.5,30.26,SSE,165,0.0,1.0,90,0.00,,,0.00,Wunderground v.1.15,2013-02-17 14:41:00,
2013-02-17 09:42:00,18.9,16.5,30.26,SSE,165,0.0,1.0,90,0.00,,,0.00,Wunderground v.1.15,2013-02-17 14:42:00,
2013-02-17 09:43:00,19.0,16.6,30.26,SSE,165,2.0,3.0,90,0.00,,,0.00,Wunderground v.1.15,2013-02-17 14:43:00,
2013-02-17 09:46:00,19.1,16.7,30.26,SSE,165,2.0,3.0,90,0.00,,,0.00,Wunderground v.1.15,2013-02-17 14:46:00,
2013-02-17 09:47:00,19.1,16.4,30.26,SSE,166,0.0,3.0,89,0.00,,,0.00,Wunderground v.1.15,2013-02-17 14:47:00,
2013-02-17 09:48:00,19.1,16.4,30.26,SSE,166,0.0,3.0,89,0.00,,,0.00,Wunderground v.1.15,2013-02-17 14:48:00,
2013-02-17 09:51:00,19.3,16.6,30.26,SSE,164,2.0,4.0,89,0.00,,,0.00,Wunderground v.1.15,2013-02-17 14:51:00,
2013-02-17 09:53:00,19.3,16.6,30.26,South,177,1.0,4.0,89,0.00,,,0.00,Wunderground v.1.15,2013-02-17 14:53:00,
2013-02-17 09:54:00,19.4,16.7,30.26,SSE,164,3.0,4.0,89,0.00,,,0.00,Wunderground v.1.15,2013-02-17 14:54:00,
2013-02-17 09:57:00,19.5,16.8,30.26,SSE,166,2.0,4.0,89,0.00,,,0.00,Wunderground v.1.15,2013-02-17 14:57:00,
2013-02-17 09:58:00,19.6,16.9,30.26,SSE,165,2.0,4.0,89,0.00,,,0.00,Wunderground v.1.15,2013-02-17 14:58:00,
2013-02-17 09:59:00,19.7,17.0,30.26,SSE,166,2.0,2.0,89,0.00,,,0.00,Wunderground v.1.15,2013-02-17 14:59:00,
2013-02-17 10:02:00,19.7,17.0,30.26,SSE,165,0.0,3.0,89,0.00,,,0.00,Wunderground v.1.15,2013-02-17 15:02:00,
2013-02-17 10:03:00,19.7,17.0,30.26,SSE,165,2.0,3.0,89,0.00,,,0.00,Wunderground v.1.15,2013-02-17 15:03:00,
2013-02-17 10:04:00,19.8,17.1,30.26,SSE,164,2.0,3.0,89,0.00,,,0.00,Wunderground v.1.15,2013-02-17 15:04:00,
2013-02-17 10:07:00,20.0,17.3,30.26,SSE,165,1.0,3.0,89,0.00,,,0.00,Wunderground v.1.15,2013-02-17 15:07:00,
2013-02-17 10:08:00,20.0,17.3,30.26,SSE,165,0.0,3.0,89,0.00,,,0.00,Wunderground v.1.15,2013-02-17 15:08:00,
2013-02-17 10:09:00,20.2,17.5,30.26,SSE,161,0.0,3.0,89,0.00,,,0.00,Wunderground v.1.15,2013-02-17 15:09:00,
2013-02-17 10:10:00,20.2,17.5,30.26,SSE,162,2.0,3.0,89,0.00,,,0.00,Wunderground v.1.15,2013-02-17 15:10:00,
2013-02-17 10:12:00,20.3,17.6,30.26,SSW,198,1.0,3.0,89,0.00,,,0.00,Wunderground v.1.15,2013-02-17 15:12:00,
2013-02-17 10:13:00,20.3,17.3,30.26,SSE,168,2.0,3.0,88,0.00,,,0.00,Wunderground v.1.15,2013-02-17 15:13:00,
2013-02-17 10:15:00,20.4,17.4,30.26,SSE,167,1.0,3.0,88,0.00,,,0.00,Wunderground v.1.15,2013-02-17 15:15:00,
2013-02-17 10:17:00,20.6,17.6,30.26,SSE,161,2.0,4.0,88,0.00,,,0.00,Wunderground v.1.15,2013-02-17 15:17:00,
2013-02-17 10:18:00,20.7,17.7,30.26,SSE,162,1.0,4.0,88,0.00,,,0.00,Wunderground v.1.15,2013-02-17 15:18:00,
2013-02-17 10:20:00,20.8,17.8,30.26,SSE,163,0.0,2.0,88,0.00,,,0.00,Wunderground v.1.15,2013-02-17 15:20:00,
2013-02-17 10:22:00,20.9,17.9,30.26,SSE,163,0.0,2.0,88,0.00,,,0.00,Wunderground v.1.15,2013-02-17 15:22:00,
2013-02-17 10:24:00,21.1,18.1,30.26,SSE,162,0.0,2.0,88,0.00,,,0.00,Wunderground v.1.15,2013-02-17 15:24:00,
2013-02-17 10:25:00,21.2,18.2,30.26,SSE,161,0.0,2.0,88,0.00,,,0.00,Wunderground v.1.15,2013-02-17 15:25:00,
2013-02-17 10:28:00,21.4,18.4,30.26,SSE,161,0.0,3.0,88,0.00,,,0.00,Wunderground v.1.15,2013-02-17 15:28:00,
2013-02-17 10:29:00,21.5,18.5,30.26,SSE,161,1.0,1.0,88,0.00,,,0.00,Wunderground v.1.15,2013-02-17 15:29:00,
2013-02-17 10:30:00,21.6,18.6,30.26,SSE,162,2.0,4.0,88,0.00,,,0.00,Wunderground v.1.15,2013-02-17 15:30:00,
2013-02-17 10:34:00,21.8,18.5,30.26,SSE,161,0.0,4.0,87,0.00,,,0.00,Wunderground v.1.15,2013-02-17 15:34:00,
2013-02-17 10:35:00,21.8,18.5,30.26,SSE,163,4.0,4.0,87,0.00,,,0.00,Wunderground v.1.15,2013-02-17 15:35:00,
2013-02-17 10:36:00,21.9,18.6,30.26,SSE,162,3.0,4.0,87,0.00,,,0.00,Wunderground v.1.15,2013-02-17 15:36:00,
2013-02-17 10:39:00,22.1,18.8,30.26,SSE,162,3.0,4.0,87,0.00,,,0.00,Wunderground v.1.15,2013-02-17 15:39:00,
2013-02-17 10:40:00,22.2,18.7,30.26,SSE,161,1.0,3.0,86,0.00,,,0.00,Wunderground v.1.15,2013-02-17 15:40:00,
2013-02-17 10:41:00,22.3,18.7,30.26,SSE,161,1.0,3.0,86,0.00,,,0.00,Wunderground v.1.15,2013-02-17 15:41:00,
2013-02-17 10:44:00,22.4,18.8,30.26,SSE,161,2.0,4.0,86,0.00,,,0.00,Wunderground v.1.15,2013-02-17 15:44:00,
2013-02-17 10:46:00,22.6,19.0,30.26,SSE,163,3.0,5.0,86,0.00,,,0.00,Wunderground v.1.15,2013-02-17 15:46:00,
2013-02-17 10:49:00,22.7,19.1,30.26,SSE,165,3.0,3.0,86,0.00,,,0.00,Wunderground v.1.15,2013-02-17 15:49:00,
2013-02-17 10:51:00,22.8,19.0,30.26,SSE,164,1.0,4.0,85,0.00,,,0.00,Wunderground v.1.15,2013-02-17 15:51:00,
2013-02-17 10:54:00,22.9,19.1,30.26,SSE,166,3.0,4.0,85,0.00,,,0.00,Wunderground v.1.15,2013-02-17 15:54:00,
2013-02-17 10:55:00,23.0,19.2,30.26,SSE,166,3.0,4.0,85,0.00,,,0.00,Wunderground v.1.15,2013-02-17 15:55:00,
2013-02-17 10:56:00,23.0,19.2,30.26,SSE,164,2.0,4.0,85,0.00,,,0.00,Wunderground v.1.15,2013-02-17 15:56:00,
2013-02-17 10:57:00,23.1,19.3,30.26,SSE,165,1.0,4.0,85,0.00,,,0.00,Wunderground v.1.15,2013-02-17 15:57:00,
2013-02-17 10:59:00,23.2,19.1,30.26,South,170,5.0,5.0,84,0.00,,,0.00,Wunderground v.1.15,2013-02-17 15:59:00,
2013-02-17 11:00:00,23.2,19.1,30.26,SSE,163,3.0,5.0,84,0.00,,,0.00,Wunderground v.1.15,2013-02-17 16:00:00,
2013-02-17 11:01:00,23.2,19.1,30.26,SSE,163,3.0,5.0,84,0.00,,,0.00,Wunderground v.1.15,2013-02-17 16:01:00,
2013-02-17 11:02:00,23.3,19.2,30.26,SSE,163,3.0,5.0,84,0.00,,,0.00,Wunderground v.1.15,2013-02-17 16:02:00,
2013-02-17 11:04:00,23.3,18.9,30.26,SSE,159,3.0,5.0,83,0.00,,,0.00,Wunderground v.1.15,2013-02-17 16:04:00,
2013-02-17 11:05:00,23.2,18.8,30.26,SSE,164,4.0,5.0,83,0.00,,,0.00,Wunderground v.1.15,2013-02-17 16:05:00,
2013-02-17 11:07:00,23.2,18.8,30.26,SSE,164,2.0,5.0,83,0.00,,,0.00,Wunderground v.1.15,2013-02-17 16:07:00,
2013-02-17 11:10:00,23.1,18.4,30.26,SSE,162,2.0,3.0,82,0.00,,,0.00,Wunderground v.1.15,2013-02-17 16:10:00,
2013-02-17 11:11:00,23.1,18.4,30.26,SSE,160,1.0,3.0,82,0.00,,,0.00,Wunderground v.1.15,2013-02-17 16:11:00,
2013-02-17 11:12:00,23.1,18.4,30.26,SSE,157,1.0,3.0,82,0.00,,,0.00,Wunderground v.1.15,2013-02-17 16:12:00,
2013-02-17 11:15:00,23.1,18.4,30.26,SSE,160,2.0,3.0,82,0.00,,,0.00,Wunderground v.1.15,2013-02-17 16:15:00,
2013-02-17 11:16:00,23.0,18.3,30.27,SSE,159,3.0,5.0,82,0.00,,,0.00,Wunderground v.1.15,2013-02-17 16:16:00,
2013-02-17 11:17:00,23.0,18.3,30.27,SSE,163,4.0,5.0,82,0.00,,,0.00,Wunderground v.1.15,2013-02-17 16:17:00,
2013-02-17 11:20:00,22.9,18.2,30.27,South,180,2.0,4.0,82,0.00,,,0.00,Wunderground v.1.15,2013-02-17 16:20:00,
2013-02-17 11:21:00,22.9,18.2,30.27,South,180,2.0,4.0,82,0.00,,,0.00,Wunderground v.1.15,2013-02-17 16:21:00,
2013-02-17 11:22:00,22.9,18.2,30.27,South,180,0.0,4.0,82,0.00,,,0.00,Wunderground v.1.15,2013-02-17 16:22:00,
2013-02-17 11:26:00,23.0,18.3,30.27,South,180,1.0,4.0,82,0.00,,,0.00,Wunderground v.1.15,2013-02-17 16:26:00,
2013-02-17 11:27:00,22.9,18.2,30.27,SE,140,1.0,4.0,82,0.00,,,0.00,Wunderground v.1.15,2013-02-17 16:27:00,
2013-02-17 11:28:00,22.9,18.2,30.27,SSE,149,3.0,4.0,82,0.00,,,0.00,Wunderground v.1.15,2013-02-17 16:28:00,
2013-02-17 11:31:00,22.9,18.2,30.27,SSE,153,1.0,4.0,82,0.00,,,0.00,Wunderground v.1.15,2013-02-17 16:31:00,
2013-02-17 11:32:00,22.9,18.2,30.27,SSE,154,2.0,4.0,82,0.00,,,0.00,Wunderground v.1.15,2013-02-17 16:32:00,
2013-02-17 11:33:00,23.0,18.3,30.27,SSE,153,2.0,4.0,82,0.00,,,0.00,Wunderground v.1.15,2013-02-17 16:33:00,
2013-02-17 11:37:00,22.9,18.5,30.27,SSE,158,2.0,5.0,83,0.00,,,0.00,Wunderground v.1.15,2013-02-17 16:37:00,
2013-02-17 11:38:00,22.9,18.5,30.27,SSE,159,3.0,5.0,83,0.00,,,0.00,Wunderground v.1.15,2013-02-17 16:38:00,
2013-02-17 11:39:00,22.9,18.5,30.27,SSE,159,0.0,2.0,83,0.00,,,0.00,Wunderground v.1.15,2013-02-17 16:39:00,
2013-02-17 11:42:00,23.0,18.6,30.27,SSE,162,4.0,4.0,83,0.00,,,0.00,Wunderground v.1.15,2013-02-17 16:42:00,
2013-02-17 11:43:00,23.0,18.6,30.27,SSE,162,2.0,4.0,83,0.00,,,0.00,Wunderground v.1.15,2013-02-17 16:43:00,
2013-02-17 11:44:00,23.0,18.9,30.27,SSE,161,2.0,4.0,84,0.00,,,0.00,Wunderground v.1.15,2013-02-17 16:44:00,
2013-02-17 11:47:00,23.1,19.0,30.27,SSE,160,2.0,4.0,84,0.00,,,0.00,Wunderground v.1.15,2013-02-17 16:47:00,
2013-02-17 11:48:00,23.1,19.0,30.27,SSE,159,4.0,4.0,84,0.00,,,0.00,Wunderground v.1.15,2013-02-17 16:48:00,
2013-02-17 11:49:00,23.2,19.1,30.27,SSE,163,2.0,3.0,84,0.00,,,0.00,Wunderground v.1.15,2013-02-17 16:49:00,
2013-02-17 11:52:00,23.3,19.2,30.27,SSE,161,2.0,3.0,84,0.00,,,0.00,Wunderground v.1.15,2013-02-17 16:52:00,
2013-02-17 11:53:00,23.3,19.2,30.27,SSE,162,3.0,3.0,84,0.00,,,0.00,Wunderground v.1.15,2013-02-17 16:53:00,
2013-02-17 11:55:00,23.3,19.2,30.27,SSE,160,1.0,4.0,84,0.00,,,0.00,Wunderground v.1.15,2013-02-17 16:55:00,
2013-02-17 11:57:00,23.4,19.3,30.27,SSE,161,1.0,4.0,84,0.00,,,0.00,Wunderground v.1.15,2013-02-17 16:57:00,
2013-02-17 11:58:00,23.5,19.4,30.27,SSE,159,3.0,4.0,84,0.00,,,0.00,Wunderground v.1.15,2013-02-17 16:58:00,
2013-02-17 12:01:00,23.6,19.8,30.27,SSE,161,2.0,3.0,85,0.00,,,0.00,Wunderground v.1.15,2013-02-17 17:01:00,
2013-02-17 12:03:00,23.8,21.8,30.27,SSE,160,2.0,3.0,92,0.00,,,0.00,Wunderground v.1.15,2013-02-17 17:03:00,
2013-02-17 12:04:00,23.8,21.8,30.26,SSE,161,2.0,3.0,92,0.00,,,0.00,Wunderground v.1.15,2013-02-17 17:04:00,
2013-02-17 12:06:00,24.0,20.1,30.26,SSE,159,0.0,3.0,85,0.00,,,0.00,Wunderground v.1.15,2013-02-17 17:06:00,
2013-02-17 12:08:00,24.1,20.2,30.26,SSE,159,1.0,3.0,85,0.00,,,0.00,Wunderground v.1.15,2013-02-17 17:08:00,
2013-02-17 12:09:00,24.2,20.3,30.26,SSE,160,1.0,2.0,85,0.00,,,0.00,Wunderground v.1.15,2013-02-17 17:09:00,
2013-02-17 12:11:00,24.4,20.5,30.26,SSE,160,0.0,3.0,85,0.00,,,0.00,Wunderground v.1.15,2013-02-17 17:11:00,
2013-02-17 12:13:00,24.5,20.6,30.26,SSE,159,0.0,3.0,85,0.00,,,0.00,Wunderground v.1.15,2013-02-17 17:13:00,
2013-02-17 12:14:00,24.7,20.8,30.26,SSE,159,4.0,4.0,85,0.00,,,0.00,Wunderground v.1.15,2013-02-17 17:14:00,
2013-02-17 12:17:00,24.9,21.0,30.26,SSE,157,2.0,4.0,85,0.00,,,0.00,Wunderground v.1.15,2013-02-17 17:17:00,
2013-02-17 12:18:00,25.0,21.1,30.26,SSE,159,1.0,4.0,85,0.00,,,0.00,Wunderground v.1.15,2013-02-17 17:18:00,
2013-02-17 12:19:00,25.1,21.2,30.26,SSE,159,2.0,2.0,85,0.00,,,0.00,Wunderground v.1.15,2013-02-17 17:19:00,
2013-02-17 12:20:00,25.2,21.3,30.26,SSE,158,0.0,4.0,85,0.00,,,0.00,Wunderground v.1.15,2013-02-17 17:20:00,
2013-02-17 12:22:00,25.4,21.2,30.26,SSE,157,2.0,4.0,84,0.00,,,0.00,Wunderground v.1.15,2013-02-17 17:22:00,
2013-02-17 12:23:00,25.6,21.4,30.26,SSE,157,0.0,4.0,84,0.00,,,0.00,Wunderground v.1.15,2013-02-17 17:23:00,
2013-02-17 12:24:00,25.6,21.4,30.26,SSE,158,2.0,4.0,84,0.00,,,0.00,Wunderground v.1.15,2013-02-17 17:24:00,
2013-02-17 12:25:00,25.7,21.5,30.26,SSE,157,0.0,4.0,84,0.00,,,0.00,Wunderground v.1.15,2013-02-17 17:25:00,
2013-02-17 12:27:00,25.9,21.7,30.26,SSE,158,0.0,4.0,84,0.00,,,0.00,Wunderground v.1.15,2013-02-17 17:27:00,
2013-02-17 12:28:00,26.0,21.8,30.26,SSE,158,0.0,4.0,84,0.00,,,0.00,Wunderground v.1.15,2013-02-17 17:28:00,
2013-02-17 12:29:00,26.1,21.6,30.26,SSE,158,0.0,2.0,83,0.00,,,0.00,Wunderground v.1.15,2013-02-17 17:29:00,
2013-02-17 12:30:00,26.1,21.6,30.26,SSE,157,0.0,2.0,83,0.00,,,0.00,Wunderground v.1.15,2013-02-17 17:30:00,
2013-02-17 12:33:00,26.5,22.0,30.26,SSE,159,0.0,2.0,83,0.00,,,0.01,Wunderground v.1.15,2013-02-17 17:33:00,
2013-02-17 12:34:00,26.5,21.7,30.26,SSE,159,0.0,2.0,82,0.00,,,0.01,Wunderground v.1.15,2013-02-17 17:34:00,
2013-02-17 12:35:00,26.6,21.8,30.26,SSE,159,0.0,2.0,82,0.00,,,0.01,Wunderground v.1.15,2013-02-17 17:35:00,
2013-02-17 12:39:00,26.7,21.1,30.26,NW,323,3.0,3.0,79,0.00,,,0.01,Wunderground v.1.15,2013-02-17 17:39:00,
2013-02-17 12:40:00,26.5,20.6,30.26,NW,323,3.0,4.0,78,0.00,,,0.01,Wunderground v.1.15,2013-02-17 17:40:00,
2013-02-17 12:44:00,25.9,19.7,30.26,NW,323,0.0,4.0,77,0.00,,,0.01,Wunderground v.1.15,2013-02-17 17:44:00,
2013-02-17 12:45:00,25.8,19.6,30.26,NW,323,0.0,4.0,77,0.00,,,0.01,Wunderground v.1.15,2013-02-17 17:45:00,
2013-02-17 12:49:00,25.6,18.1,30.26,NW,321,0.0,2.0,73,0.00,,,0.01,Wunderground v.1.15,2013-02-17 17:49:00,
2013-02-17 12:50:00,25.5,18.0,30.26,NW,321,3.0,3.0,73,0.00,,,0.01,Wunderground v.1.15,2013-02-17 17:50:00,
2013-02-17 12:51:00,25.4,17.6,30.26,NW,321,3.0,4.0,72,0.00,,,0.01,Wunderground v.1.15,2013-02-17 17:51:00,
2013-02-17 12:55:00,25.2,17.4,30.26,NNW,338,1.0,4.0,72,0.00,,,0.01,Wunderground v.1.15,2013-02-17 17:55:00,
2013-02-17 12:56:00,25.2,17.1,30.26,NNW,338,1.0,4.0,71,0.00,,,0.01,Wunderground v.1.15,2013-02-17 17:56:00,
2013-02-17 13:00:00,24.9,16.5,30.26,NNW,327,2.0,6.0,70,0.00,,,0.01,Wunderground v.1.15,2013-02-17 18:00:00,
2013-02-17 13:01:00,24.8,16.7,30.25,NNW,330,10.0,12.0,71,0.00,,,0.01,Wunderground v.1.15,2013-02-17 18:01:00,
2013-02-17 13:05:00,24.2,16.8,30.25,NNW,334,5.0,12.0,73,0.00,,,0.01,Wunderground v.1.15,2013-02-17 18:05:00,
2013-02-17 13:06:00,24.2,16.8,30.25,NNW,331,7.0,12.0,73,0.00,,,0.01,Wunderground v.1.15,2013-02-17 18:06:00,
2013-02-17 13:07:00,24.1,16.7,30.25,NNW,331,4.0,12.0,73,0.00,,,0.01,Wunderground v.1.15,2013-02-17 18:07:00,
2013-02-17 13:10:00,24.3,16.6,30.25,NNW,331,6.0,7.0,72,0.00,,,0.01,Wunderground v.1.15,2013-02-17 18:10:00,
2013-02-17 13:11:00,24.3,16.6,30.25,NNW,331,6.0,7.0,72,0.00,,,0.01,Wunderground v.1.15,2013-02-17 18:11:00,
2013-02-17 13:12:00,24.3,16.6,30.25,NNW,331,6.0,8.0,72,0.00,,,0.01,Wunderground v.1.15,2013-02-17 18:12:00,
2013-02-17 13:16:00,24.6,17.2,30.25,NNW,330,5.0,10.0,73,0.00,,,0.01,Wunderground v.1.15,2013-02-17 18:16:00,
2013-02-17 13:17:00,24.7,17.3,30.25,West,268,5.0,10.0,73,0.00,,,0.01,Wunderground v.1.15,2013-02-17 18:17:00,
2013-02-17 13:18:00,24.7,17.3,30.25,NW,326,3.0,10.0,73,0.00,,,0.01,Wunderground v.1.15,2013-02-17 18:18:00,
2013-02-17 13:21:00,24.9,17.1,30.25,NNW,336,5.0,6.0,72,0.00,,,0.01,Wunderground v.1.15,2013-02-17 18:21:00,
2013-02-17 13:22:00,24.8,17.1,30.25,NNW,336,3.0,6.0,72,0.00,,,0.01,Wunderground v.1.15,2013-02-17 18:22:00,
2013-02-17 13:23:00,24.9,17.1,30.25,NNW,336,0.0,6.0,72,0.00,,,0.01,Wunderground v.1.15,2013-02-17 18:23:00,
2013-02-17 13:26:00,25.2,17.4,30.25,NNW,334,4.0,6.0,72,0.00,,,0.01,Wunderground v.1.15,2013-02-17 18:26:00,
2013-02-17 13:27:00,25.2,17.4,30.25,NNW,334,2.0,6.0,72,0.00,,,0.01,Wunderground v.1.15,2013-02-17 18:27:00,
2013-02-17 13:28:00,25.3,16.9,30.25,NNW,334,4.0,6.0,70,0.00,,,0.01,Wunderground v.1.15,2013-02-17 18:28:00,
2013-02-17 13:32:00,25.2,16.5,30.25,NNW,337,4.0,7.0,69,0.00,,,0.01,Wunderground v.1.15,2013-02-17 18:32:00,
2013-02-17 13:33:00,25.2,16.5,30.24,NNW,337,5.0,7.0,69,0.00,,,0.01,Wunderground v.1.15,2013-02-17 18:33:00,
2013-02-17 13:34:00,25.2,16.5,30.24,NNW,337,2.0,7.0,69,0.00,,,0.01,Wunderground v.1.15,2013-02-17 18:34:00,
2013-02-17 13:37:00,25.3,16.9,30.25,NNW,336,3.0,7.0,70,0.00,,,0.01,Wunderground v.1.15,2013-02-17 18:37:00,
2013-02-17 13:38:00,25.4,16.6,30.24,NNW,337,1.0,7.0,69,0.00,,,0.01,Wunderground v.1.15,2013-02-17 18:38:00,
2013-02-17 13:39:00,25.5,16.7,30.24,NNW,336,3.0,3.0,69,0.00,,,0.01,Wunderground v.1.15,2013-02-17 18:39:00,
2013-02-17 13:42:00,25.6,16.2,30.24,NNW,337,2.0,4.0,67,0.00,,,0.01,Wunderground v.1.15,2013-02-17 18:42:00,
2013-02-17 13:43:00,25.6,16.2,30.24,NNW,337,3.0,4.0,67,0.00,,,0.01,Wunderground v.1.15,2013-02-17 18:43:00,
2013-02-17 13:45:00,25.6,15.8,30.25,NNW,336,4.0,5.0,66,0.00,,,0.01,Wunderground v.1.15,2013-02-17 18:45:00,
2013-02-17 13:47:00,25.5,15.7,30.24,NNW,337,4.0,5.0,66,0.00,,,0.01,Wunderground v.1.15,2013-02-17 18:47:00,
2013-02-17 13:48:00,25.5,16.1,30.25,NNW,336,4.0,6.0,67,0.00,,,0.01,Wunderground v.1.15,2013-02-17 18:48:00,
2013-02-17 13:50:00,25.6,16.5,30.24,NNW,337,2.0,4.0,68,0.00,,,0.01,Wunderground v.1.15,2013-02-17 18:50:00,
2013-02-17 13:52:00,25.8,16.3,30.24,NNW,336,5.0,5.0,67,0.00,,,0.01,Wunderground v.1.15,2013-02-17 18:52:00,
2013-02-17 13:53:00,25.8,16.7,30.24,NNW,336,6.0,6.0,68,0.00,,,0.01,Wunderground v.1.15,2013-02-17 18:53:00,
2013-02-17 13:55:00,25.8,16.3,30.25,NNW,336,4.0,6.0,67,0.00,,,0.01,Wunderground v.1.15,2013-02-17 18:55:00,
2013-02-17 13:57:00,25.7,16.6,30.24,NNW,336,5.0,6.0,68,0.00,,,0.01,Wunderground v.1.15,2013-02-17 18:57:00,
2013-02-17 13:58:00,25.7,16.3,30.24,NNW,336,8.0,9.0,67,0.00,,,0.01,Wunderground v.1.15,2013-02-17 18:58:00,
2013-02-17 14:00:00,25.5,16.1,30.24,NNW,336,6.0,10.0,67,0.00,,,0.01,Wunderground v.1.15,2013-02-17 19:00:00,
2013-02-17 14:02:00,25.4,16.6,30.25,NNW,336,4.0,10.0,69,0.00,,,0.01,Wunderground v.1.15,2013-02-17 19:02:00,
2013-02-17 14:04:00,25.4,16.6,30.25,NNW,336,5.0,10.0,69,0.00,,,0.01,Wunderground v.1.15,2013-02-17 19:04:00,
2013-02-17 14:06:00,25.5,16.7,30.24,NNW,336,5.0,10.0,69,0.00,,,0.01,Wunderground v.1.15,2013-02-17 19:06:00,
2013-02-17 14:08:00,25.6,16.5,30.24,NNW,336,6.0,10.0,68,0.00,,,0.01,Wunderground v.1.15,2013-02-17 19:08:00,
2013-02-17 14:09:00,25.7,16.6,30.24,NNW,336,4.0,5.0,68,0.00,,,0.01,Wunderground v.1.15,2013-02-17 19:09:00,
2013-02-17 14:11:00,25.7,16.6,30.24,NNW,336,4.0,8.0,68,0.00,,,0.01,Wunderground v.1.15,2013-02-17 19:11:00,
2013-02-17 14:12:00,25.7,16.6,30.24,NNW,336,4.0,8.0,68,0.00,,,0.01,Wunderground v.1.15,2013-02-17 19:12:00,
2013-02-17 14:13:00,25.7,16.6,30.24,NNW,336,3.0,8.0,68,0.00,,,0.01,Wunderground v.1.15,2013-02-17 19:13:00,
2013-02-17 14:14:00,25.8,16.7,30.24,NNW,336,3.0,8.0,68,0.00,,,0.01,Wunderground v.1.15,2013-02-17 19:14:00,
2013-02-17 14:16:00,26.0,16.9,30.24,NNW,336,5.0,8.0,68,0.00,,,0.01,Wunderground v.1.15,2013-02-17 19:16:00,
2013-02-17 14:17:00,26.0,16.9,30.24,NNW,336,6.0,8.0,68,0.00,,,0.01,Wunderground v.1.15,2013-02-17 19:17:00,
2013-02-17 14:18:00,25.9,16.8,30.24,NNW,329,4.0,8.0,68,0.00,,,0.01,Wunderground v.1.15,2013-02-17 19:18:00,
2013-02-17 14:19:00,25.9,16.4,30.24,NNW,329,4.0,5.0,67,0.00,,,0.01,Wunderground v.1.15,2013-02-17 19:19:00,
2013-02-17 14:21:00,25.8,16.3,30.24,NNW,329,4.0,7.0,67,0.00,,,0.01,Wunderground v.1.15,2013-02-17 19:21:00,
2013-02-17 14:22:00,25.8,16.3,30.24,NNW,329,3.0,7.0,67,0.00,,,0.01,Wunderground v.1.15,2013-02-17 19:22:00,
2013-02-17 14:24:00,25.7,16.3,30.24,NNW,331,8.0,8.0,67,0.00,,,0.01,Wunderground v.1.15,2013-02-17 19:24:00,
2013-02-17 14:26:00,25.6,16.2,30.24,NNW,332,4.0,9.0,67,0.00,,,0.01,Wunderground v.1.15,2013-02-17 19:26:00,
2013-02-17 14:27:00,25.7,16.6,30.24,NNW,331,4.0,9.0,68,0.00,,,0.01,Wunderground v.1.15,2013-02-17 19:27:00,
2013-02-17 14:29:00,25.7,16.6,30.24,NNW,331,5.0,6.0,68,0.00,,,0.01,Wunderground v.1.15,2013-02-17 19:29:00,
2013-02-17 14:32:00,25.7,16.3,30.24,NNW,331,6.0,7.0,67,0.00,,,0.01,Wunderground v.1.15,2013-02-17 19:32:00,
2013-02-17 14:33:00,25.7,16.9,30.24,NNW,331,6.0,7.0,69,0.00,,,0.02,Wunderground v.1.15,2013-02-17 19:33:00,
2013-02-17 14:34:00,25.6,16.8,30.24,NNW,331,5.0,7.0,69,0.00,,,0.02,Wunderground v.1.15,2013-02-17 19:34:00,
2013-02-17 14:37:00,25.7,17.3,30.24,NNW,332,6.0,9.0,70,0.00,,,0.02,Wunderground v.1.15,2013-02-17 19:37:00,
2013-02-17 14:38:00,25.7,17.3,30.24,NNW,332,4.0,9.0,70,0.00,,,0.02,Wunderground v.1.15,2013-02-17 19:38:00,
2013-02-17 14:40:00,26.0,17.6,30.24,NNW,331,3.0,5.0,70,0.00,,,0.02,Wunderground v.1.15,2013-02-17 19:40:00,
2013-02-17 14:42:00,26.1,17.3,30.23,NNW,332,1.0,6.0,69,0.00,,,0.02,Wunderground v.1.15,2013-02-17 19:42:00,
2013-02-17 14:43:00,26.2,17.4,30.23,NNW,332,4.0,6.0,69,0.00,,,0.02,Wunderground v.1.15,2013-02-17 19:43:00,
2013-02-17 14:45:00,26.3,17.5,30.23,NNW,332,5.0,6.0,69,0.00,,,0.02,Wunderground v.1.15,2013-02-17 19:45:00,
2013-02-17 14:47:00,26.3,17.5,30.23,NNW,331,4.0,6.0,69,0.00,,,0.02,Wunderground v.1.15,2013-02-17 19:47:00,
2013-02-17 14:49:00,26.3,17.8,30.23,NW,316,4.0,4.0,70,0.00,,,0.02,Wunderground v.1.15,2013-02-17 19:49:00,
2013-02-17 14:50:00,26.3,17.5,30.23,NW,316,4.0,5.0,69,0.00,,,0.02,Wunderground v.1.15,2013-02-17 19:50:00,
2013-02-17 14:51:00,26.4,17.6,30.23,NW,317,6.0,6.0,69,0.00,,,0.02,Wunderground v.1.15,2013-02-17 19:51:00,
2013-02-17 14:52:00,26.3,17.5,30.23,NW,321,5.0,7.0,69,0.00,,,0.02,Wunderground v.1.15,2013-02-17 19:52:00,
2013-02-17 14:54:00,26.3,17.5,30.23,NW,321,4.0,7.0,69,0.00,,,0.02,Wunderground v.1.15,2013-02-17 19:54:00,
2013-02-17 14:55:00,26.3,17.8,30.23,NNW,331,9.0,9.0,70,0.00,,,0.02,Wunderground v.1.15,2013-02-17 19:55:00,
2013-02-17 14:56:00,26.2,17.4,30.23,NNW,331,6.0,9.0,69,0.00,,,0.02,Wunderground v.1.15,2013-02-17 19:56:00,
2013-02-17 14:57:00,26.1,17.6,30.23,NW,321,5.0,9.0,70,0.00,,,0.02,Wunderground v.1.15,2013-02-17 19:57:00,
2013-02-17 14:59:00,26.0,17.2,30.23,NW,313,4.0,7.0,69,0.00,,,0.02,Wunderground v.1.15,2013-02-17 19:59:00,
2013-02-17 15:01:00,25.8,17.0,30.23,NW,313,5.0,7.0,69,0.00,,,0.02,Wunderground v.1.15,2013-02-17 20:01:00,
2013-02-17 15:03:00,25.9,17.5,30.23,NW,313,4.0,7.0,70,0.00,,,0.02,Wunderground v.1.15,2013-02-17 20:03:00,
2013-02-17 15:04:00,25.9,17.8,30.23,NW,323,6.0,8.0,71,0.00,,,0.02,Wunderground v.1.15,2013-02-17 20:04:00,
2013-02-17 15:06:00,25.9,17.8,30.23,NW,309,7.0,8.0,71,0.00,,,0.02,Wunderground v.1.15,2013-02-17 20:06:00,
2013-02-17 15:08:00,25.8,17.4,30.23,NW,321,6.0,8.0,70,0.00,,,0.02,Wunderground v.1.15,2013-02-17 20:08:00,
2013-02-17 15:10:00,25.9,17.8,30.23,NW,317,4.0,7.0,71,0.00,,,0.02,Wunderground v.1.15,2013-02-17 20:10:00,
2013-02-17 15:11:00,25.9,17.5,30.23,NNW,330,8.0,10.0,70,0.00,,,0.02,Wunderground v.1.15,2013-02-17 20:11:00,
2013-02-17 15:12:00,25.8,17.7,30.23,NNW,330,7.0,10.0,71,0.00,,,0.02,Wunderground v.1.15,2013-02-17 20:12:00,
2013-02-17 15:13:00,25.7,17.3,30.23,NNW,330,9.0,10.0,70,0.00,,,0.02,Wunderground v.1.15,2013-02-17 20:13:00,
2013-02-17 15:15:00,25.9,18.1,30.23,WNW,303,5.0,10.0,72,0.00,,,0.02,Wunderground v.1.15,2013-02-17 20:15:00,
2013-02-17 15:16:00,25.9,17.8,30.23,NNW,338,5.0,10.0,71,0.00,,,0.02,Wunderground v.1.15,2013-02-17 20:16:00,
2013-02-17 15:17:00,26.0,17.9,30.23,NNW,334,5.0,10.0,71,0.00,,,0.02,Wunderground v.1.15,2013-02-17 20:17:00,
2013-02-17 15:18:00,26.0,17.9,30.23,NNW,334,7.0,10.0,71,0.00,,,0.02,Wunderground v.1.15,2013-02-17 20:18:00,
2013-02-17 15:21:00,25.9,17.8,30.23,NNW,331,9.0,10.0,71,0.00,,,0.02,Wunderground v.1.15,2013-02-17 20:21:00,
2013-02-17 15:22:00,25.9,17.8,30.23,NNW,331,6.0,10.0,71,0.00,,,0.02,Wunderground v.1.15,2013-02-17 20:22:00,
2013-02-17 15:23:00,25.8,17.7,30.23,NNW,329,2.0,10.0,71,0.00,,,0.02,Wunderground v.1.15,2013-02-17 20:23:00,
2013-02-17 15:26:00,26.0,17.9,30.23,NNW,341,3.0,10.0,71,0.00,,,0.02,Wunderground v.1.15,2013-02-17 20:26:00,
2013-02-17 15:27:00,26.2,18.1,30.23,NNW,341,4.0,10.0,71,0.00,,,0.02,Wunderground v.1.15,2013-02-17 20:27:00,
2013-02-17 15:28:00,26.2,18.4,30.23,NNW,341,4.0,10.0,72,0.00,,,0.02,Wunderground v.1.15,2013-02-17 20:28:00,
2013-02-17 15:29:00,26.3,18.5,30.23,NNW,342,6.0,10.0,72,0.00,,,0.02,Wunderground v.1.15,2013-02-17 20:29:00,
2013-02-17 15:31:00,26.3,17.8,30.23,NW,325,5.0,7.0,70,0.00,,,0.02,Wunderground v.1.15,2013-02-17 20:31:00,
2013-02-17 15:32:00,26.2,17.7,30.23,NW,325,6.0,7.0,70,0.00,,,0.02,Wunderground v.1.15,2013-02-17 20:32:00,
2013-02-17 15:33:00,26.2,17.7,30.23,NW,325,5.0,7.0,70,0.00,,,0.02,Wunderground v.1.15,2013-02-17 20:33:00,
2013-02-17 15:34:00,26.2,17.7,30.23,NW,324,7.0,9.0,70,0.00,,,0.02,Wunderground v.1.15,2013-02-17 20:34:00,
2013-02-17 15:36:00,26.1,17.6,30.23,NW,323,1.0,9.0,70,0.00,,,0.02,Wunderground v.1.15,2013-02-17 20:36:00,
2013-02-17 15:37:00,26.1,17.6,30.23,NW,324,4.0,9.0,70,0.00,,,0.02,Wunderground v.1.15,2013-02-17 20:37:00,
2013-02-17 15:38:00,26.2,17.7,30.23,NW,324,7.0,9.0,70,0.00,,,0.02,Wunderground v.1.15,2013-02-17 20:38:00,
2013-02-17 15:40:00,26.3,18.2,30.23,NW,324,3.0,6.0,71,0.00,,,0.02,Wunderground v.1.15,2013-02-17 20:40:00,
2013-02-17 15:42:00,26.5,18.4,30.23,NW,324,4.0,6.0,71,0.00,,,0.02,Wunderground v.1.15,2013-02-17 20:42:00,
2013-02-17 15:43:00,26.5,18.4,30.23,NW,324,3.0,6.0,71,0.00,,,0.02,Wunderground v.1.15,2013-02-17 20:43:00,
2013-02-17 15:45:00,26.7,18.2,30.23,NW,324,3.0,6.0,70,0.00,,,0.02,Wunderground v.1.15,2013-02-17 20:45:00,
2013-02-17 15:46:00,26.8,18.7,30.22,NW,323,3.0,6.0,71,0.00,,,0.02,Wunderground v.1.15,2013-02-17 20:46:00,
2013-02-17 15:47:00,26.9,18.4,30.23,NW,324,2.0,6.0,70,0.00,,,0.02,Wunderground v.1.15,2013-02-17 20:47:00,
2013-02-17 15:48:00,26.9,18.4,30.22,NW,324,5.0,6.0,70,0.00,,,0.02,Wunderground v.1.15,2013-02-17 20:48:00,
2013-02-17 15:50:00,27.1,18.3,30.22,NW,323,4.0,4.0,69,0.00,,,0.02,Wunderground v.1.15,2013-02-17 20:50:00,
2013-02-17 15:51:00,27.1,18.6,30.22,NW,323,4.0,5.0,70,0.00,,,0.02,Wunderground v.1.15,2013-02-17 20:51:00,
2013-02-17 15:52:00,27.2,18.4,30.22,NW,323,3.0,5.0,69,0.00,,,0.02,Wunderground v.1.15,2013-02-17 20:52:00,
2013-02-17 15:53:00,27.2,18.7,30.22,NW,324,3.0,5.0,70,0.00,,,0.02,Wunderground v.1.15,2013-02-17 20:53:00,
2013-02-17 15:55:00,27.3,18.5,30.22,NW,324,4.0,6.0,69,0.00,,,0.02,Wunderground v.1.15,2013-02-17 20:55:00,
2013-02-17 15:56:00,27.3,18.5,30.22,NW,323,3.0,6.0,69,0.00,,,0.02,Wunderground v.1.15,2013-02-17 20:56:00,
2013-02-17 15:57:00,27.3,18.8,30.22,NW,324,4.0,6.0,70,0.00,,,0.02,Wunderground v.1.15,2013-02-17 20:57:00,
2013-02-17 15:58:00,27.3,18.1,30.22,NW,323,3.0,6.0,68,0.00,,,0.02,Wunderground v.1.15,2013-02-17 20:58:00,
2013-02-17 16:01:00,27.3,18.1,30.22,NW,324,3.0,4.0,68,0.00,,,0.02,Wunderground v.1.15,2013-02-17 21:01:00,
2013-02-17 16:03:00,27.4,18.6,30.22,NW,324,3.0,4.0,69,0.00,,,0.02,Wunderground v.1.15,2013-02-17 21:03:00,
2013-02-17 16:04:00,27.5,19.0,30.22,NW,323,4.0,5.0,70,0.00,,,0.02,Wunderground v.1.15,2013-02-17 21:04:00,
2013-02-17 16:06:00,27.5,18.7,30.22,NW,324,3.0,5.0,69,0.00,,,0.02,Wunderground v.1.15,2013-02-17 21:06:00,
2013-02-17 16:07:00,27.6,19.1,30.22,NW,324,4.0,5.0,70,0.00,,,0.02,Wunderground v.1.15,2013-02-17 21:07:00,
2013-02-17 16:08:00,27.7,19.2,30.22,NW,324,2.0,5.0,70,0.00,,,0.02,Wunderground v.1.15,2013-02-17 21:08:00,
2013-02-17 16:10:00,27.7,18.8,30.22,NW,324,4.0,4.0,69,0.00,,,0.02,Wunderground v.1.15,2013-02-17 21:10:00,
2013-02-17 16:11:00,27.8,19.3,30.22,NW,323,4.0,4.0,70,0.00,,,0.02,Wunderground v.1.15,2013-02-17 21:11:00,
2013-02-17 16:12:00,27.9,19.4,30.22,NW,324,3.0,5.0,70,0.00,,,0.02,Wunderground v.1.15,2013-02-17 21:12:00,
2013-02-17 16:14:00,28.0,19.5,30.22,NW,323,3.0,5.0,70,0.00,,,0.02,Wunderground v.1.15,2013-02-17 21:14:00,
2013-02-17 16:15:00,28.0,19.1,30.22,NW,323,2.0,5.0,69,0.00,,,0.02,Wunderground v.1.15,2013-02-17 21:15:00,
2013-02-17 16:16:00,28.0,19.1,30.22,NW,324,2.0,5.0,69,0.00,,,0.02,Wunderground v.1.15,2013-02-17 21:16:00,
2013-02-17 16:17:00,28.1,19.2,30.22,NW,323,4.0,5.0,69,0.00,,,0.02,Wunderground v.1.15,2013-02-17 21:17:00,
2013-02-17 16:20:00,28.2,19.3,30.22,NW,324,4.0,5.0,69,0.00,,,0.02,Wunderground v.1.15,2013-02-17 21:20:00,
2013-02-17 16:21:00,28.0,18.5,30.22,NW,324,4.0,5.0,67,0.00,,,0.02,Wunderground v.1.15,2013-02-17 21:21:00,
2013-02-17 16:22:00,27.9,18.7,30.22,NW,324,4.0,5.0,68,0.00,,,0.02,Wunderground v.1.15,2013-02-17 21:22:00,
2013-02-17 16:25:00,27.8,18.6,30.22,NW,323,5.0,5.0,68,0.00,,,0.02,Wunderground v.1.15,2013-02-17 21:25:00,
2013-02-17 16:26:00,27.7,18.2,30.22,NW,324,4.0,5.0,67,0.00,,,0.02,Wunderground v.1.15,2013-02-17 21:26:00,
2013-02-17 16:27:00,27.7,18.5,30.22,NW,324,4.0,5.0,68,0.00,,,0.02,Wunderground v.1.15,2013-02-17 21:27:00,
2013-02-17 16:30:00,27.7,18.8,30.22,NW,324,3.0,4.0,69,0.00,,,0.02,Wunderground v.1.15,2013-02-17 21:30:00,
2013-02-17 16:31:00,27.8,18.9,30.22,NW,323,4.0,4.0,69,0.00,,,0.02,Wunderground v.1.15,2013-02-17 21:31:00,
2013-02-17 16:33:00,27.7,18.5,30.22,NW,324,2.0,4.0,68,0.00,,,0.02,Wunderground v.1.15,2013-02-17 21:33:00,
2013-02-17 16:36:00,27.7,18.2,30.22,NW,324,2.0,4.0,67,0.00,,,0.02,Wunderground v.1.15,2013-02-17 21:36:00,
2013-02-17 16:38:00,27.8,18.6,30.22,NW,324,3.0,5.0,68,0.00,,,0.02,Wunderground v.1.15,2013-02-17 21:38:00,
2013-02-17 16:41:00,27.8,18.3,30.22,NW,323,4.0,4.0,67,0.00,,,0.02,Wunderground v.1.15,2013-02-17 21:41:00,
2013-02-17 16:42:00,27.8,17.9,30.22,NW,324,3.0,6.0,66,0.00,,,0.02,Wunderground v.1.15,2013-02-17 21:42:00,
2013-02-17 16:43:00,27.8,18.3,30.22,NW,324,3.0,6.0,67,0.00,,,0.02,Wunderground v.1.15,2013-02-17 21:43:00,
2013-02-17 16:46:00,27.6,18.1,30.21,NW,324,1.0,6.0,67,0.00,,,0.02,Wunderground v.1.15,2013-02-17 21:46:00,
2013-02-17 16:47:00,27.6,18.1,30.21,NW,323,2.0,6.0,67,0.00,,,0.02,Wunderground v.1.15,2013-02-17 21:47:00,
2013-02-17 16:48:00,27.6,18.1,30.21,NW,324,3.0,6.0,67,0.00,,,0.02,Wunderground v.1.15,2013-02-17 21:48:00,
2013-02-17 16:51:00,27.9,18.4,30.21,NW,324,2.0,4.0,67,0.00,,,0.02,Wunderground v.1.15,2013-02-17 21:51:00,
2013-02-17 16:52:00,27.9,18.0,30.21,NW,324,2.0,4.0,66,0.00,,,0.02,Wunderground v.1.15,2013-02-17 21:52:00,
2013-02-17 16:53:00,27.9,18.0,30.21,NW,324,2.0,4.0,66,0.00,,,0.02,Wunderground v.1.15,2013-02-17 21:53:00,
2013-02-17 16:56:00,27.9,18.4,30.21,NW,324,3.0,5.0,67,0.00,,,0.02,Wunderground v.1.15,2013-02-17 21:56:00,
2013-02-17 16:58:00,27.8,18.3,30.21,NW,323,1.0,5.0,67,0.00,,,0.02,Wunderground v.1.15,2013-02-17 21:58:00,
2013-02-17 17:01:00,27.8,17.9,30.21,NW,324,3.0,3.0,66,0.00,,,0.02,Wunderground v.1.15,2013-02-17 22:01:00,
2013-02-17 17:03:00,27.7,18.2,30.21,NW,323,4.0,5.0,67,0.00,,,0.02,Wunderground v.1.15,2013-02-17 22:03:00,
2013-02-17 17:06:00,27.6,17.7,30.20,NW,323,4.0,5.0,66,0.00,,,0.03,Wunderground v.1.15,2013-02-17 22:06:00,
2013-02-17 17:07:00,27.6,17.7,30.20,NW,323,4.0,5.0,66,0.00,,,0.03,Wunderground v.1.15,2013-02-17 22:07:00,
2013-02-17 17:08:00,27.5,17.6,30.20,NW,324,3.0,5.0,66,0.00,,,0.03,Wunderground v.1.15,2013-02-17 22:08:00,
2013-02-17 17:09:00,27.5,17.6,30.20,NW,324,3.0,5.0,66,0.00,,,0.03,Wunderground v.1.15,2013-02-17 22:09:00,
2013-02-17 17:11:00,27.4,17.9,30.20,NW,324,3.0,4.0,67,0.00,,,0.03,Wunderground v.1.15,2013-02-17 22:11:00,
2013-02-17 17:12:00,27.4,17.5,30.20,NW,323,2.0,4.0,66,0.00,,,0.03,Wunderground v.1.15,2013-02-17 22:12:00,
2013-02-17 17:13:00,27.4,17.5,30.20,NW,324,2.0,4.0,66,0.00,,,0.03,Wunderground v.1.15,2013-02-17 22:13:00,
2013-02-17 17:14:00,27.5,17.6,30.20,NW,323,3.0,4.0,66,0.00,,,0.03,Wunderground v.1.15,2013-02-17 22:14:00,
2013-02-17 17:17:00,27.5,17.6,30.20,NW,323,2.0,4.0,66,0.00,,,0.03,Wunderground v.1.15,2013-02-17 22:17:00,
2013-02-17 17:18:00,27.5,17.6,30.20,NW,324,2.0,4.0,66,0.00,,,0.03,Wunderground v.1.15,2013-02-17 22:18:00,
2013-02-17 17:19:00,27.5,17.6,30.20,NW,324,2.0,3.0,66,0.00,,,0.03,Wunderground v.1.15,2013-02-17 22:19:00,
2013-02-17 17:22:00,27.6,17.4,30.20,NW,323,2.0,4.0,65,0.00,,,0.03,Wunderground v.1.15,2013-02-17 22:22:00,
2013-02-17 17:23:00,27.6,17.4,30.20,NW,323,2.0,4.0,65,0.00,,,0.03,Wunderground v.1.15,2013-02-17 22:23:00,
2013-02-17 17:24:00,27.7,17.5,30.20,NW,324,0.0,4.0,65,0.00,,,0.03,Wunderground v.1.15,2013-02-17 22:24:00,
2013-02-17 17:25:00,27.8,17.6,30.20,NW,324,2.0,4.0,65,0.00,,,0.03,Wunderground v.1.15,2013-02-17 22:25:00,
2013-02-17 17:27:00,27.8,17.6,30.20,NW,324,0.0,4.0,65,0.00,,,0.03,Wunderground v.1.15,2013-02-17 22:27:00,
2013-02-17 17:28:00,27.8,17.6,30.20,NW,324,1.0,4.0,65,0.00,,,0.03,Wunderground v.1.15,2013-02-17 22:28:00,
2013-02-17 17:29:00,27.7,17.5,30.20,NW,323,1.0,2.0,65,0.00,,,0.03,Wunderground v.1.15,2013-02-17 22:29:00,
2013-02-17 17:31:00,27.8,17.6,30.20,NW,323,0.0,2.0,65,0.00,,,0.03,Wunderground v.1.15,2013-02-17 22:31:00,
2013-02-17 17:32:00,27.7,17.5,30.20,NW,324,1.0,2.0,65,0.00,,,0.03,Wunderground v.1.15,2013-02-17 22:32:00,
2013-02-17 17:35:00,27.6,17.0,30.20,NW,324,1.0,3.0,64,0.00,,,0.03,Wunderground v.1.15,2013-02-17 22:35:00,
2013-02-17 17:36:00,27.4,16.8,30.20,NW,323,2.0,3.0,64,0.00,,,0.03,Wunderground v.1.15,2013-02-17 22:36:00,
2013-02-17 17:37:00,27.3,16.7,30.20,NW,324,0.0,3.0,64,0.00,,,0.03,Wunderground v.1.15,2013-02-17 22:37:00,
2013-02-17 17:40:00,27.2,17.0,30.20,NW,324,1.0,1.0,65,0.00,,,0.03,Wunderground v.1.15,2013-02-17 22:40:00,
2013-02-17 17:41:00,27.1,16.9,30.20,NW,324,1.0,2.0,65,0.00,,,0.03,Wunderground v.1.15,2013-02-17 22:41:00,
2013-02-17 17:43:00,27.0,16.8,30.20,NW,323,2.0,2.0,65,0.00,,,0.03,Wunderground v.1.15,2013-02-17 22:43:00,
2013-02-17 17:45:00,27.0,16.8,30.20,NW,324,1.0,2.0,65,0.00,,,0.03,Wunderground v.1.15,2013-02-17 22:45:00,
2013-02-17 17:47:00,27.0,17.1,30.20,NW,324,1.0,2.0,66,0.00,,,0.03,Wunderground v.1.15,2013-02-17 22:47:00,
2013-02-17 17:48:00,27.0,17.1,30.20,NW,323,0.0,2.0,66,0.00,,,0.03,Wunderground v.1.15,2013-02-17 22:48:00,
2013-02-17 17:50:00,27.1,17.6,30.20,NW,324,0.0,2.0,67,0.00,,,0.03,Wunderground v.1.15,2013-02-17 22:50:00,
2013-02-17 17:53:00,27.2,17.7,30.19,NW,324,0.0,2.0,67,0.00,,,0.03,Wunderground v.1.15,2013-02-17 22:53:00,
2013-02-17 17:55:00,27.3,17.8,30.19,NW,323,0.0,2.0,67,0.00,,,0.03,Wunderground v.1.15,2013-02-17 22:55:00,
2013-02-17 17:58:00,27.4,17.5,30.19,NW,324,0.0,2.0,66,0.00,,,0.03,Wunderground v.1.15,2013-02-17 22:58:00,
2013-02-17 17:59:00,27.4,17.5,30.19,NW,324,0.0,0.0,66,0.00,,,0.03,Wunderground v.1.15,2013-02-17 22:59:00,
2013-02-17 18:00:00,27.3,17.1,30.19,NW,323,0.0,0.0,65,0.00,,,0.03,Wunderground v.1.15,2013-02-17 23:00:00,
2013-02-17 18:04:00,27.1,16.9,30.19,NW,323,0.0,0.0,65,0.00,,,0.03,Wunderground v.1.15,2013-02-17 23:04:00,
2013-02-17 18:06:00,27.1,16.9,30.19,NW,324,0.0,0.0,65,0.00,,,0.03,Wunderground v.1.15,2013-02-17 23:06:00,
2013-02-17 18:09:00,27.0,16.8,30.19,NW,324,0.0,0.0,65,0.00,,,0.03,Wunderground v.1.15,2013-02-17 23:09:00,
2013-02-17 18:10:00,27.0,16.8,30.19,NW,323,0.0,0.0,65,0.00,,,0.03,Wunderground v.1.15,2013-02-17 23:10:00,
2013-02-17 18:11:00,27.0,16.8,30.19,NW,324,0.0,0.0,65,0.00,,,0.03,Wunderground v.1.15,2013-02-17 23:11:00,
2013-02-17 18:14:00,27.0,16.4,30.19,NW,324,0.0,0.0,64,0.00,,,0.03,Wunderground v.1.15,2013-02-17 23:14:00,
2013-02-17 18:15:00,26.9,16.3,30.19,NW,324,0.0,0.0,64,0.00,,,0.03,Wunderground v.1.15,2013-02-17 23:15:00,
2013-02-17 18:16:00,26.9,16.3,30.19,NW,323,0.0,0.0,64,0.00,,,0.03,Wunderground v.1.15,2013-02-17 23:16:00,
2013-02-17 18:19:00,26.8,16.6,30.19,NW,324,0.0,0.0,65,0.00,,,0.03,Wunderground v.1.15,2013-02-17 23:19:00,
2013-02-17 18:20:00,26.7,16.5,30.19,NW,323,0.0,0.0,65,0.00,,,0.03,Wunderground v.1.15,2013-02-17 23:20:00,
2013-02-17 18:21:00,26.7,16.5,30.19,NW,323,0.0,0.0,65,0.00,,,0.03,Wunderground v.1.15,2013-02-17 23:21:00,
2013-02-17 18:22:00,26.7,16.9,30.19,NW,324,0.0,0.0,66,0.00,,,0.03,Wunderground v.1.15,2013-02-17 23:22:00,
2013-02-17 18:24:00,26.5,16.7,30.19,NW,323,0.0,0.0,66,0.00,,,0.03,Wunderground v.1.15,2013-02-17 23:24:00,
2013-02-17 18:25:00,26.3,16.5,30.19,NW,323,0.0,0.0,66,0.00,,,0.03,Wunderground v.1.15,2013-02-17 23:25:00,
2013-02-17 18:26:00,26.3,16.5,30.19,NW,323,0.0,0.0,66,0.00,,,0.03,Wunderground v.1.15,2013-02-17 23:26:00,
2013-02-17 18:28:00,26.1,16.6,30.19,NW,324,0.0,0.0,67,0.00,,,0.03,Wunderground v.1.15,2013-02-17 23:28:00,
2013-02-17 18:30:00,26.0,16.5,30.19,NW,324,0.0,0.0,67,0.00,,,0.03,Wunderground v.1.15,2013-02-17 23:30:00,
2013-02-17 18:32:00,25.8,16.3,30.19,NW,324,0.0,0.0,67,0.00,,,0.03,Wunderground v.1.15,2013-02-17 23:32:00,
2013-02-17 18:33:00,25.8,16.3,30.18,NW,324,0.0,0.0,67,0.00,,,0.03,Wunderground v.1.15,2013-02-17 23:33:00,
2013-02-17 18:35:00,25.6,16.2,30.19,NW,323,0.0,0.0,67,0.00,,,0.03,Wunderground v.1.15,2013-02-17 23:35:00,
2013-02-17 18:37:00,25.5,16.1,30.19,NW,323,0.0,0.0,67,0.00,,,0.03,Wunderground v.1.15,2013-02-17 23:37:00,
2013-02-17 18:38:00,25.4,16.3,30.19,NW,324,0.0,1.0,68,0.00,,,0.03,Wunderground v.1.15,2013-02-17 23:38:00,
2013-02-17 18:40:00,25.3,16.2,30.19,NW,324,0.0,0.0,68,0.00,,,0.03,Wunderground v.1.15,2013-02-17 23:40:00,
2013-02-17 18:41:00,25.2,16.1,30.19,NW,324,0.0,0.0,68,0.00,,,0.03,Wunderground v.1.15,2013-02-17 23:41:00,
2013-02-17 18:42:00,25.1,16.0,30.19,NW,324,0.0,0.0,68,0.00,,,0.03,Wunderground v.1.15,2013-02-17 23:42:00,
2013-02-17 18:43:00,24.9,15.8,30.19,NW,323,0.0,1.0,68,0.00,,,0.03,Wunderground v.1.15,2013-02-17 23:43:00,
2013-02-17 18:45:00,24.7,15.6,30.19,NW,324,0.0,1.0,68,0.00,,,0.03,Wunderground v.1.15,2013-02-17 23:45:00,
2013-02-17 18:46:00,24.6,15.5,30.19,NW,324,0.0,1.0,68,0.00,,,0.03,Wunderground v.1.15,2013-02-17 23:46:00,
2013-02-17 18:47:00,24.5,15.4,30.19,NW,324,1.0,1.0,68,0.00,,,0.03,Wunderground v.1.15,2013-02-17 23:47:00,
2013-02-17 18:48:00,24.3,15.3,30.19,NW,323,0.0,1.0,68,0.00,,,0.03,Wunderground v.1.15,2013-02-17 23:48:00,
2013-02-17 18:51:00,24.0,15.0,30.19,NW,324,0.0,2.0,68,0.00,,,0.03,Wunderground v.1.15,2013-02-17 23:51:00,
2013-02-17 18:52:00,23.9,14.9,30.19,NW,324,0.0,2.0,68,0.00,,,0.03,Wunderground v.1.15,2013-02-17 23:52:00,
2013-02-17 18:54:00,23.8,14.8,30.19,NW,324,0.0,2.0,68,0.00,,,0.03,Wunderground v.1.15,2013-02-17 23:54:00,
2013-02-17 18:56:00,23.5,14.5,30.19,NW,324,1.0,2.0,68,0.00,,,0.03,Wunderground v.1.15,2013-02-17 23:56:00,
2013-02-17 18:57:00,23.5,14.5,30.19,NW,324,0.0,2.0,68,0.00,,,0.03,Wunderground v.1.15,2013-02-17 23:57:00,
2013-02-17 18:59:00,23.3,14.3,30.19,NW,323,0.0,2.0,68,0.00,,,0.03,Wunderground v.1.15,2013-02-17 23:59:00,
2013-02-17 19:02:00,23.0,14.0,30.18,NW,324,0.0,1.0,68,0.00,,,0.03,Wunderground v.1.15,2013-02-18 00:02:00,
2013-02-17 19:04:00,22.8,13.5,30.18,NW,324,0.0,2.0,67,0.00,,,0.03,Wunderground v.1.15,2013-02-18 00:04:00,
2013-02-17 19:07:00,22.6,13.3,30.18,NW,324,1.0,2.0,67,0.00,,,0.03,Wunderground v.1.15,2013-02-18 00:07:00,
2013-02-17 19:09:00,22.5,13.2,30.18,NW,324,1.0,1.0,67,0.00,,,0.03,Wunderground v.1.15,2013-02-18 00:09:00,
2013-02-17 19:12:00,22.4,13.1,30.18,NW,324,0.0,2.0,67,0.00,,,0.03,Wunderground v.1.15,2013-02-18 00:12:00,
2013-02-17 19:13:00,22.3,13.0,30.18,NW,324,0.0,2.0,67,0.00,,,0.03,Wunderground v.1.15,2013-02-18 00:13:00,
2013-02-17 19:14:00,22.2,12.9,30.18,NW,324,0.0,2.0,67,0.00,,,0.03,Wunderground v.1.15,2013-02-18 00:14:00,
2013-02-17 19:17:00,22.2,12.9,30.18,NW,324,0.0,2.0,67,0.00,,,0.03,Wunderground v.1.15,2013-02-18 00:17:00,
2013-02-17 19:18:00,22.1,12.8,30.18,NW,324,0.0,2.0,67,0.00,,,0.03,Wunderground v.1.15,2013-02-18 00:18:00,
2013-02-17 19:19:00,22.1,12.8,30.18,NW,323,0.0,0.0,67,0.00,,,0.03,Wunderground v.1.15,2013-02-18 00:19:00,
2013-02-17 19:20:00,22.0,12.7,30.18,NW,324,0.0,0.0,67,0.00,,,0.03,Wunderground v.1.15,2013-02-18 00:20:00,
2013-02-17 19:22:00,22.0,12.7,30.18,NW,323,0.0,1.0,67,0.00,,,0.03,Wunderground v.1.15,2013-02-18 00:22:00,
2013-02-17 19:23:00,21.9,12.6,30.18,NW,323,0.0,1.0,67,0.00,,,0.03,Wunderground v.1.15,2013-02-18 00:23:00,
2013-02-17 19:24:00,21.8,12.5,30.18,NW,324,0.0,1.0,67,0.00,,,0.03,Wunderground v.1.15,2013-02-18 00:24:00,
2013-02-17 19:25:00,21.8,12.5,30.18,NW,324,0.0,1.0,67,0.00,,,0.03,Wunderground v.1.15,2013-02-18 00:25:00,
2013-02-17 19:27:00,21.7,12.4,30.18,NW,324,0.0,1.0,67,0.00,,,0.03,Wunderground v.1.15,2013-02-18 00:27:00,
2013-02-17 19:28:00,21.7,12.4,30.18,NW,324,0.0,1.0,67,0.00,,,0.03,Wunderground v.1.15,2013-02-18 00:28:00,
2013-02-17 19:29:00,21.7,12.4,30.18,NW,324,0.0,0.0,67,0.00,,,0.03,Wunderground v.1.15,2013-02-18 00:29:00,
2013-02-17 19:30:00,21.6,12.3,30.18,NW,324,0.0,1.0,67,0.00,,,0.03,Wunderground v.1.15,2013-02-18 00:30:00,
2013-02-17 19:33:00,21.5,12.2,30.18,NW,323,0.0,1.0,67,0.00,,,0.03,Wunderground v.1.15,2013-02-18 00:33:00,
2013-02-17 19:34:00,21.5,12.2,30.18,NW,324,0.0,1.0,67,0.00,,,0.03,Wunderground v.1.15,2013-02-18 00:34:00,
2013-02-17 19:36:00,21.4,12.1,30.18,NW,323,0.0,1.0,67,0.00,,,0.03,Wunderground v.1.15,2013-02-18 00:36:00,
2013-02-17 19:38:00,21.3,12.0,30.18,NW,324,0.0,1.0,67,0.00,,,0.03,Wunderground v.1.15,2013-02-18 00:38:00,
2013-02-17 19:39:00,21.2,11.9,30.19,NW,324,0.0,1.0,67,0.00,,,0.03,Wunderground v.1.15,2013-02-18 00:39:00,
2013-02-17 19:42:00,21.1,11.8,30.19,NW,324,0.0,1.0,67,0.00,,,0.03,Wunderground v.1.15,2013-02-18 00:42:00,
2013-02-17 19:43:00,21.1,12.2,30.19,NW,324,0.0,1.0,68,0.00,,,0.03,Wunderground v.1.15,2013-02-18 00:43:00,
2013-02-17 19:45:00,21.0,12.1,30.19,NW,324,0.0,1.0,68,0.00,,,0.03,Wunderground v.1.15,2013-02-18 00:45:00,
2013-02-17 19:47:00,20.9,12.0,30.19,NW,324,1.0,2.0,68,0.00,,,0.03,Wunderground v.1.15,2013-02-18 00:47:00,
2013-02-17 19:48:00,20.9,12.0,30.19,NW,324,1.0,2.0,68,0.00,,,0.03,Wunderground v.1.15,2013-02-18 00:48:00,
2013-02-17 19:49:00,20.9,12.0,30.19,NW,324,1.0,2.0,68,0.00,,,0.03,Wunderground v.1.15,2013-02-18 00:49:00,
2013-02-17 19:50:00,20.8,12.2,30.19,NW,323,0.0,1.0,69,0.00,,,0.03,Wunderground v.1.15,2013-02-18 00:50:00,
2013-02-17 19:53:00,20.7,12.1,30.19,NW,323,0.0,1.0,69,0.00,,,0.03,Wunderground v.1.15,2013-02-18 00:53:00,
2013-02-17 19:54:00,20.6,11.7,30.19,NW,324,1.0,1.0,68,0.00,,,0.03,Wunderground v.1.15,2013-02-18 00:54:00,
2013-02-17 19:55:00,20.6,11.7,30.19,NW,324,0.0,1.0,68,0.00,,,0.03,Wunderground v.1.15,2013-02-18 00:55:00,
2013-02-17 19:58:00,20.5,11.9,30.19,NW,323,0.0,2.0,69,0.00,,,0.03,Wunderground v.1.15,2013-02-18 00:58:00,
2013-02-17 19:59:00,20.4,11.8,30.19,NW,324,1.0,1.0,69,0.00,,,0.03,Wunderground v.1.15,2013-02-18 00:59:00,
2013-02-17 20:00:00,20.4,11.8,30.19,NW,324,0.0,1.0,69,0.00,,,0.03,Wunderground v.1.15,2013-02-18 01:00:00,
2013-02-17 20:03:00,20.3,11.7,30.19,NW,324,0.0,1.0,69,0.00,,,0.03,Wunderground v.1.15,2013-02-18 01:03:00,
2013-02-17 20:04:00,20.3,11.7,30.19,NW,323,1.0,1.0,69,0.00,,,0.03,Wunderground v.1.15,2013-02-18 01:04:00,
2013-02-17 20:06:00,20.3,12.1,30.19,NW,323,0.0,1.0,70,0.00,,,0.03,Wunderground v.1.15,2013-02-18 01:06:00,
2013-02-17 20:08:00,20.2,12.0,30.20,NW,324,1.0,2.0,70,0.00,,,0.03,Wunderground v.1.15,2013-02-18 01:08:00,
2013-02-17 20:09:00,20.1,11.9,30.20,NW,324,1.0,2.0,70,0.00,,,0.03,Wunderground v.1.15,2013-02-18 01:09:00,
2013-02-17 20:12:00,20.1,11.9,30.20,NW,324,1.0,2.0,70,0.00,,,0.03,Wunderground v.1.15,2013-02-18 01:12:00,
2013-02-17 20:14:00,20.0,11.8,30.20,NW,324,0.0,2.0,70,0.00,,,0.03,Wunderground v.1.15,2013-02-18 01:14:00,
2013-02-17 20:17:00,19.8,11.9,30.20,NW,324,1.0,2.0,71,0.00,,,0.03,Wunderground v.1.15,2013-02-18 01:17:00,
2013-02-17 20:19:00,19.8,11.9,30.20,NW,323,0.0,1.0,71,0.00,,,0.03,Wunderground v.1.15,2013-02-18 01:19:00,
2013-02-17 20:22:00,19.7,11.8,30.20,NW,324,0.0,1.0,71,0.00,,,0.03,Wunderground v.1.15,2013-02-18 01:22:00,
2013-02-17 20:24:00,19.7,11.8,30.20,NW,323,1.0,1.0,71,0.00,,,0.03,Wunderground v.1.15,2013-02-18 01:24:00,
2013-02-17 20:25:00,19.7,11.8,30.20,NW,324,2.0,2.0,71,0.00,,,0.03,Wunderground v.1.15,2013-02-18 01:25:00,
2013-02-17 20:27:00,19.7,12.1,30.20,NW,324,1.0,2.0,72,0.00,,,0.03,Wunderground v.1.15,2013-02-18 01:27:00,
2013-02-17 20:29:00,19.7,12.1,30.20,NW,324,0.0,1.0,72,0.00,,,0.03,Wunderground v.1.15,2013-02-18 01:29:00,
2013-02-17 20:30:00,19.7,12.1,30.20,NW,324,0.0,1.0,72,0.00,,,0.03,Wunderground v.1.15,2013-02-18 01:30:00,
2013-02-17 20:31:00,19.7,12.1,30.20,NW,324,1.0,1.0,72,0.00,,,0.03,Wunderground v.1.15,2013-02-18 01:31:00,
2013-02-17 20:32:00,19.6,12.0,30.20,NW,323,1.0,2.0,72,0.00,,,0.03,Wunderground v.1.15,2013-02-18 01:32:00,
2013-02-17 20:34:00,19.6,12.0,30.20,NW,323,1.0,2.0,72,0.00,,,0.03,Wunderground v.1.15,2013-02-18 01:34:00,
2013-02-17 20:35:00,19.6,12.0,30.20,NW,323,0.0,3.0,72,0.00,,,0.03,Wunderground v.1.15,2013-02-18 01:35:00,
2013-02-17 20:36:00,19.6,12.0,30.20,NW,323,0.0,3.0,72,0.00,,,0.03,Wunderground v.1.15,2013-02-18 01:36:00,
2013-02-17 20:37:00,19.5,11.9,30.19,NW,324,0.0,3.0,72,0.00,,,0.03,Wunderground v.1.15,2013-02-18 01:37:00,
2013-02-17 20:40:00,19.5,11.9,30.19,NW,324,1.0,2.0,72,0.00,,,0.03,Wunderground v.1.15,2013-02-18 01:40:00,
2013-02-17 20:42:00,19.5,11.6,30.19,NW,324,1.0,2.0,71,0.00,,,0.03,Wunderground v.1.15,2013-02-18 01:42:00,
2013-02-17 20:45:00,19.5,11.6,30.18,NW,324,1.0,2.0,71,0.00,,,0.03,Wunderground v.1.15,2013-02-18 01:45:00,
2013-02-17 20:46:00,19.5,11.6,30.18,NW,324,0.0,2.0,71,0.00,,,0.03,Wunderground v.1.15,2013-02-18 01:46:00,
2013-02-17 20:47:00,19.5,11.6,30.18,NW,324,1.0,2.0,71,0.00,,,0.03,Wunderground v.1.15,2013-02-18 01:47:00,
2013-02-17 20:50:00,19.6,11.7,30.18,NW,323,0.0,1.0,71,0.00,,,0.03,Wunderground v.1.15,2013-02-18 01:50:00,
2013-02-17 20:51:00,19.7,11.8,30.18,NW,323,1.0,1.0,71,0.00,,,0.03,Wunderground v.1.15,2013-02-18 01:51:00,
2013-02-17 20:52:00,19.6,11.7,30.19,NW,323,0.0,1.0,71,0.00,,,0.03,Wunderground v.1.15,2013-02-18 01:52:00,
2013-02-17 20:53:00,19.6,11.7,30.18,NW,324,0.0,1.0,71,0.00,,,0.03,Wunderground v.1.15,2013-02-18 01:53:00,
2013-02-17 20:56:00,19.6,11.7,30.19,NW,323,0.0,1.0,71,0.00,,,0.03,Wunderground v.1.15,2013-02-18 01:56:00,
2013-02-17 20:57:00,19.6,11.7,30.19,NW,323,0.0,1.0,71,0.00,,,0.03,Wunderground v.1.15,2013-02-18 01:57:00,
2013-02-17 20:58:00,19.6,11.7,30.19,NW,324,0.0,1.0,71,0.00,,,0.03,Wunderground v.1.15,2013-02-18 01:58:00,
2013-02-17 20:59:00,19.6,11.7,30.19,NW,323,0.0,0.0,71,0.00,,,0.03,Wunderground v.1.15,2013-02-18 01:59:00,
2013-02-17 21:01:00,19.6,11.7,30.19,NW,323,0.0,1.0,71,0.00,,,0.03,Wunderground v.1.15,2013-02-18 02:01:00,
2013-02-17 21:02:00,19.6,11.7,30.19,NW,324,0.0,1.0,71,0.00,,,0.03,Wunderground v.1.15,2013-02-18 02:02:00,
2013-02-17 21:04:00,19.6,11.7,30.19,NW,324,0.0,1.0,71,0.00,,,0.03,Wunderground v.1.15,2013-02-18 02:04:00,
2013-02-17 21:05:00,19.6,11.7,30.19,NW,323,0.0,1.0,71,0.00,,,0.03,Wunderground v.1.15,2013-02-18 02:05:00,
2013-02-17 21:06:00,19.6,11.7,30.19,NW,324,0.0,1.0,71,0.00,,,0.03,Wunderground v.1.15,2013-02-18 02:06:00,
2013-02-17 21:07:00,19.6,11.7,30.19,NW,324,0.0,1.0,71,0.00,,,0.03,Wunderground v.1.15,2013-02-18 02:07:00,
2013-02-17 21:09:00,19.6,11.7,30.19,NW,324,0.0,0.0,71,0.00,,,0.03,Wunderground v.1.15,2013-02-18 02:09:00,
2013-02-17 21:11:00,19.6,11.7,30.19,NW,324,0.0,1.0,71,0.00,,,0.03,Wunderground v.1.15,2013-02-18 02:11:00,
2013-02-17 21:12:00,19.6,11.7,30.19,NW,323,0.0,1.0,71,0.00,,,0.03,Wunderground v.1.15,2013-02-18 02:12:00,
2013-02-17 21:14:00,19.6,11.7,30.19,NW,323,0.0,1.0,71,0.00,,,0.03,Wunderground v.1.15,2013-02-18 02:14:00,
2013-02-17 21:16:00,19.6,11.7,30.19,NW,324,0.0,1.0,71,0.00,,,0.03,Wunderground v.1.15,2013-02-18 02:16:00,
2013-02-17 21:17:00,19.6,11.7,30.19,NW,323,0.0,1.0,71,0.00,,,0.03,Wunderground v.1.15,2013-02-18 02:17:00,
2013-02-17 21:18:00,19.6,11.7,30.19,NW,323,0.0,1.0,71,0.00,,,0.03,Wunderground v.1.15,2013-02-18 02:18:00,
2013-02-17 21:20:00,19.5,11.6,30.19,NW,323,0.0,1.0,71,0.00,,,0.03,Wunderground v.1.15,2013-02-18 02:20:00,
2013-02-17 21:21:00,19.5,11.6,30.19,NW,324,1.0,2.0,71,0.00,,,0.03,Wunderground v.1.15,2013-02-18 02:21:00,
2013-02-17 21:22:00,19.5,11.6,30.18,NW,324,1.0,2.0,71,0.00,,,0.03,Wunderground v.1.15,2013-02-18 02:22:00,
2013-02-17 21:23:00,19.5,11.6,30.18,NW,324,0.0,2.0,71,0.00,,,0.03,Wunderground v.1.15,2013-02-18 02:23:00,
2013-02-17 21:25:00,19.5,11.9,30.18,NW,323,0.0,2.0,72,0.00,,,0.03,Wunderground v.1.15,2013-02-18 02:25:00,
2013-02-17 21:26:00,19.5,11.9,30.18,NW,324,0.0,2.0,72,0.00,,,0.03,Wunderground v.1.15,2013-02-18 02:26:00,
2013-02-17 21:28:00,19.5,11.9,30.18,NW,324,0.0,2.0,72,0.00,,,0.03,Wunderground v.1.15,2013-02-18 02:28:00,
2013-02-17 21:30:00,19.5,11.9,30.18,NW,324,1.0,2.0,72,0.00,,,0.03,Wunderground v.1.15,2013-02-18 02:30:00,
2013-02-17 21:31:00,19.5,11.9,30.18,NW,324,1.0,2.0,72,0.00,,,0.03,Wunderground v.1.15,2013-02-18 02:31:00,
2013-02-17 21:33:00,19.5,11.9,30.18,NW,323,1.0,2.0,72,0.00,,,0.03,Wunderground v.1.15,2013-02-18 02:33:00,
2013-02-17 21:35:00,19.4,13.9,30.18,NW,324,0.0,2.0,79,0.00,,,0.03,Wunderground v.1.15,2013-02-18 02:35:00,
2013-02-17 21:36:00,19.4,13.9,30.18,NW,324,1.0,2.0,79,0.00,,,0.03,Wunderground v.1.15,2013-02-18 02:36:00,
2013-02-17 21:38:00,19.4,11.8,30.18,NW,323,0.0,2.0,72,0.00,,,0.03,Wunderground v.1.15,2013-02-18 02:38:00,
2013-02-17 21:39:00,19.4,13.9,30.18,NW,324,0.0,0.0,79,0.00,,,0.03,Wunderground v.1.15,2013-02-18 02:39:00,
2013-02-17 21:41:00,19.4,11.8,30.18,NW,324,2.0,2.0,72,0.00,,,0.03,Wunderground v.1.15,2013-02-18 02:41:00,
2013-02-17 21:43:00,19.3,11.7,30.18,NW,324,2.0,2.0,72,0.00,,,0.03,Wunderground v.1.15,2013-02-18 02:43:00,
2013-02-17 21:44:00,19.3,11.7,30.18,NW,324,1.0,2.0,72,0.00,,,0.03,Wunderground v.1.15,2013-02-18 02:44:00,
2013-02-17 21:46:00,19.3,11.7,30.18,NW,324,0.0,2.0,72,0.00,,,0.03,Wunderground v.1.15,2013-02-18 02:46:00,
2013-02-17 21:47:00,19.3,11.7,30.18,NW,324,1.0,2.0,72,0.00,,,0.03,Wunderground v.1.15,2013-02-18 02:47:00,
2013-02-17 21:48:00,19.3,11.7,30.18,NW,324,1.0,2.0,72,0.00,,,0.03,Wunderground v.1.15,2013-02-18 02:48:00,
2013-02-17 21:50:00,19.3,12.1,30.18,NW,323,0.0,2.0,73,0.00,,,0.03,Wunderground v.1.15,2013-02-18 02:50:00,
2013-02-17 21:51:00,19.3,12.1,30.18,NW,324,2.0,3.0,73,0.00,,,0.03,Wunderground v.1.15,2013-02-18 02:51:00,
2013-02-17 21:52:00,19.3,12.1,30.18,NW,324,2.0,3.0,73,0.00,,,0.03,Wunderground v.1.15,2013-02-18 02:52:00,
2013-02-17 21:54:00,19.2,12.0,30.18,NW,323,1.0,3.0,73,0.00,,,0.03,Wunderground v.1.15,2013-02-18 02:54:00,
2013-02-17 21:55:00,19.3,12.1,30.18,NW,323,0.0,3.0,73,0.00,,,0.03,Wunderground v.1.15,2013-02-18 02:55:00,
2013-02-17 21:56:00,19.2,12.0,30.17,NW,324,1.0,3.0,73,0.00,,,0.03,Wunderground v.1.15,2013-02-18 02:56:00,
2013-02-17 21:58:00,19.2,12.0,30.17,NW,324,1.0,3.0,73,0.00,,,0.03,Wunderground v.1.15,2013-02-18 02:58:00,
2013-02-17 21:59:00,19.2,12.0,30.17,NW,324,0.0,1.0,73,0.00,,,0.03,Wunderground v.1.15,2013-02-18 02:59:00,
2013-02-17 22:00:00,19.3,12.1,30.17,NW,324,0.0,1.0,73,0.00,,,0.03,Wunderground v.1.15,2013-02-18 03:00:00,
2013-02-17 22:01:00,19.3,12.1,30.17,NW,324,0.0,1.0,73,0.00,,,0.03,Wunderground v.1.15,2013-02-18 03:01:00,
2013-02-17 22:03:00,19.3,12.1,30.17,NW,324,0.0,1.0,73,0.00,,,0.03,Wunderground v.1.15,2013-02-18 03:03:00,
2013-02-17 22:04:00,19.3,12.1,30.17,NW,323,0.0,1.0,73,0.00,,,0.03,Wunderground v.1.15,2013-02-18 03:04:00,
2013-02-17 22:05:00,19.3,12.1,30.17,NW,324,1.0,1.0,73,0.00,,,0.03,Wunderground v.1.15,2013-02-18 03:05:00,
2013-02-17 22:06:00,19.3,12.1,30.17,NW,323,0.0,1.0,73,0.00,,,0.03,Wunderground v.1.15,2013-02-18 03:06:00,
2013-02-17 22:08:00,19.3,12.1,30.17,NW,324,1.0,1.0,73,0.00,,,0.03,Wunderground v.1.15,2013-02-18 03:08:00,
2013-02-17 22:09:00,19.3,12.1,30.17,NW,323,2.0,2.0,73,0.00,,,0.03,Wunderground v.1.15,2013-02-18 03:09:00,
2013-02-17 22:10:00,19.3,12.1,30.17,NW,323,1.0,2.0,73,0.00,,,0.03,Wunderground v.1.15,2013-02-18 03:10:00,
2013-02-17 22:11:00,19.3,12.1,30.17,NW,324,0.0,2.0,73,0.00,,,0.03,Wunderground v.1.15,2013-02-18 03:11:00,
2013-02-17 22:13:00,19.3,12.1,30.17,NW,324,0.0,2.0,73,0.00,,,0.03,Wunderground v.1.15,2013-02-18 03:13:00,
2013-02-17 22:15:00,19.3,12.1,30.17,NW,323,0.0,2.0,73,0.00,,,0.03,Wunderground v.1.15,2013-02-18 03:15:00,
2013-02-17 22:16:00,19.3,12.1,30.17,NW,324,1.0,2.0,73,0.00,,,0.03,Wunderground v.1.15,2013-02-18 03:16:00,
2013-02-17 22:17:00,19.2,12.0,30.17,NW,324,2.0,2.0,73,0.00,,,0.03,Wunderground v.1.15,2013-02-18 03:17:00,
2013-02-17 22:18:00,19.3,12.1,30.17,NW,323,1.0,4.0,73,0.00,,,0.03,Wunderground v.1.15,2013-02-18 03:18:00,
2013-02-17 22:20:00,19.3,12.1,30.17,NW,324,2.0,3.0,73,0.00,,,0.03,Wunderground v.1.15,2013-02-18 03:20:00,
2013-02-17 22:21:00,19.3,12.1,30.17,NW,324,2.0,4.0,73,0.00,,,0.03,Wunderground v.1.15,2013-02-18 03:21:00,
2013-02-17 22:22:00,19.3,12.1,30.16,NW,323,2.0,4.0,73,0.00,,,0.03,Wunderground v.1.15,2013-02-18 03:22:00,
2013-02-17 22:24:00,19.3,12.1,30.17,NW,324,0.0,4.0,73,0.00,,,0.03,Wunderground v.1.15,2013-02-18 03:24:00,
2013-02-17 22:25:00,19.4,12.5,30.16,NW,324,1.0,4.0,74,0.00,,,0.03,Wunderground v.1.15,2013-02-18 03:25:00,
2013-02-17 22:26:00,19.3,12.4,30.17,NW,324,1.0,4.0,74,0.00,,,0.03,Wunderground v.1.15,2013-02-18 03:26:00,
2013-02-17 22:27:00,19.4,14.2,30.17,NW,324,1.0,4.0,80,0.00,,,0.03,Wunderground v.1.15,2013-02-18 03:27:00,
2013-02-17 22:29:00,19.5,12.6,30.17,NW,324,0.0,1.0,74,0.00,,,0.03,Wunderground v.1.15,2013-02-18 03:29:00,
2013-02-17 22:31:00,19.5,12.6,30.16,NW,324,2.0,2.0,74,0.00,,,0.03,Wunderground v.1.15,2013-02-18 03:31:00,
2013-02-17 22:33:00,19.6,12.7,30.17,NW,323,0.0,2.0,74,0.00,,,0.03,Wunderground v.1.15,2013-02-18 03:33:00,
2013-02-17 22:34:00,19.6,12.7,30.17,NW,323,0.0,2.0,74,0.00,,,0.03,Wunderground v.1.15,2013-02-18 03:34:00,
2013-02-17 22:36:00,19.7,12.8,30.17,NW,323,0.0,3.0,74,0.00,,,0.03,Wunderground v.1.15,2013-02-18 03:36:00,
2013-02-17 22:37:00,19.7,12.8,30.17,NW,323,2.0,3.0,74,0.00,,,0.03,Wunderground v.1.15,2013-02-18 03:37:00,
2013-02-17 22:38:00,19.7,12.8,30.17,NW,324,1.0,3.0,74,0.00,,,0.03,Wunderground v.1.15,2013-02-18 03:38:00,
2013-02-17 22:39:00,19.7,12.8,30.17,NW,323,2.0,2.0,74,0.00,,,0.03,Wunderground v.1.15,2013-02-18 03:39:00,
2013-02-17 22:41:00,19.7,13.1,30.17,SSE,165,1.0,4.0,75,0.00,,,0.03,Wunderground v.1.15,2013-02-18 03:41:00,
2013-02-17 22:42:00,19.7,13.1,30.17,SSE,163,1.0,4.0,75,0.00,,,0.03,Wunderground v.1.15,2013-02-18 03:42:00,
2013-02-17 22:44:00,19.7,13.1,30.16,SSE,163,1.0,4.0,75,0.00,,,0.03,Wunderground v.1.15,2013-02-18 03:44:00,
2013-02-17 22:46:00,19.7,13.1,30.16,SSE,163,0.0,4.0,75,0.00,,,0.03,Wunderground v.1.15,2013-02-18 03:46:00,
2013-02-17 22:47:00,19.7,13.1,30.16,SSE,161,1.0,4.0,75,0.00,,,0.03,Wunderground v.1.15,2013-02-18 03:47:00,
2013-02-17 22:49:00,19.8,13.2,30.16,SSE,160,1.0,2.0,75,0.00,,,0.03,Wunderground v.1.15,2013-02-18 03:49:00,
2013-02-17 22:50:00,19.9,13.3,30.16,SSE,160,2.0,2.0,75,0.00,,,0.03,Wunderground v.1.15,2013-02-18 03:50:00,
2013-02-17 22:52:00,19.9,13.3,30.16,SSE,159,2.0,3.0,75,0.00,,,0.03,Wunderground v.1.15,2013-02-18 03:52:00,
2013-02-17 22:55:00,20.1,13.4,30.16,SSE,158,0.0,4.0,75,0.00,,,0.03,Wunderground v.1.15,2013-02-18 03:55:00,
2013-02-17 22:57:00,20.1,13.4,30.16,SSE,155,2.0,4.0,75,0.00,,,0.03,Wunderground v.1.15,2013-02-18 03:57:00,
2013-02-17 23:00:00,20.2,13.5,30.16,SSE,159,0.0,2.0,75,0.00,,,0.03,Wunderground v.1.15,2013-02-18 04:00:00,
2013-02-17 23:01:00,20.3,13.6,30.16,SSE,159,0.0,2.0,75,0.00,,,0.03,Wunderground v.1.15,2013-02-18 04:01:00,
2013-02-17 23:02:00,20.3,13.6,30.16,SSE,159,1.0,2.0,75,0.00,,,0.03,Wunderground v.1.15,2013-02-18 04:02:00,
2013-02-17 23:03:00,20.3,13.6,30.16,SSE,159,1.0,2.0,75,0.00,,,0.03,Wunderground v.1.15,2013-02-18 04:03:00,
2013-02-17 23:05:00,20.4,13.7,30.16,SSE,161,1.0,3.0,75,0.00,,,0.03,Wunderground v.1.15,2013-02-18 04:05:00,
2013-02-17 23:07:00,20.4,13.7,30.16,SSE,160,1.0,3.0,75,0.00,,,0.03,Wunderground v.1.15,2013-02-18 04:07:00,
2013-02-17 23:08:00,20.5,13.8,30.16,SSE,161,1.0,3.0,75,0.00,,,0.03,Wunderground v.1.15,2013-02-18 04:08:00,
2013-02-17 23:10:00,20.6,13.9,30.16,SSE,155,1.0,3.0,75,0.00,,,0.03,Wunderground v.1.15,2013-02-18 04:10:00,
2013-02-17 23:12:00,20.6,13.9,30.16,SSE,157,0.0,4.0,75,0.00,,,0.03,Wunderground v.1.15,2013-02-18 04:12:00,
2013-02-17 23:14:00,20.6,13.9,30.16,SSE,158,0.0,4.0,75,0.00,,,0.03,Wunderground v.1.15,2013-02-18 04:14:00,
2013-02-17 23:15:00,20.7,14.0,30.16,SSE,158,2.0,4.0,75,0.00,,,0.03,Wunderground v.1.15,2013-02-18 04:15:00,
2013-02-17 23:17:00,20.7,14.0,30.17,SSE,157,2.0,4.0,75,0.00,,,0.03,Wunderground v.1.15,2013-02-18 04:17:00,
2013-02-17 23:19:00,20.8,14.1,30.17,SSE,159,1.0,3.0,75,0.00,,,0.03,Wunderground v.1.15,2013-02-18 04:19:00,
2013-02-17 23:21:00,20.8,14.1,30.17,SSE,159,2.0,3.0,75,0.00,,,0.03,Wunderground v.1.15,2013-02-18 04:21:00,
2013-02-17 23:22:00,20.8,14.1,30.17,SSE,160,2.0,4.0,75,0.00,,,0.03,Wunderground v.1.15,2013-02-18 04:22:00,
2013-02-17 23:24:00,20.9,14.2,30.17,SSE,159,0.0,4.0,75,0.00,,,0.03,Wunderground v.1.15,2013-02-18 04:24:00,
2013-02-17 23:26:00,20.9,14.2,30.17,SSE,159,1.0,4.0,75,0.00,,,0.03,Wunderground v.1.15,2013-02-18 04:26:00,
2013-02-17 23:27:00,20.9,14.2,30.17,SSE,159,1.0,4.0,75,0.00,,,0.03,Wunderground v.1.15,2013-02-18 04:27:00,
2013-02-17 23:29:00,20.9,14.2,30.17,SSE,159,2.0,2.0,75,0.00,,,0.03,Wunderground v.1.15,2013-02-18 04:29:00,
2013-02-17 23:32:00,20.9,14.2,30.17,SSE,157,4.0,4.0,75,0.00,,,0.03,Wunderground v.1.15,2013-02-18 04:32:00,
2013-02-17 23:35:00,20.9,14.2,30.16,SSE,159,3.0,4.0,75,0.00,,,0.03,Wunderground v.1.15,2013-02-18 04:35:00,
2013-02-17 23:37:00,20.9,14.2,30.16,SSE,156,1.0,4.0,75,0.00,,,0.03,Wunderground v.1.15,2013-02-18 04:37:00,
2013-02-17 23:38:00,21.0,14.3,30.16,SSE,150,2.0,4.0,75,0.00,,,0.03,Wunderground v.1.15,2013-02-18 04:38:00,
2013-02-17 23:40:00,21.0,14.6,30.16,SSE,155,3.0,4.0,76,0.00,,,0.03,Wunderground v.1.15,2013-02-18 04:40:00,
2013-02-17 23:42:00,21.0,14.6,30.16,SSE,157,4.0,4.0,76,0.00,,,0.03,Wunderground v.1.15,2013-02-18 04:42:00,
2013-02-17 23:43:00,21.1,14.7,30.16,SSE,156,4.0,4.0,76,0.00,,,0.03,Wunderground v.1.15,2013-02-18 04:43:00,
2013-02-17 23:46:00,21.1,14.7,30.16,SSE,160,3.0,4.0,76,0.00,,,0.03,Wunderground v.1.15,2013-02-18 04:46:00,
2013-02-17 23:47:00,21.1,14.7,30.16,SSE,156,3.0,4.0,76,0.00,,,0.03,Wunderground v.1.15,2013-02-18 04:47:00,
2013-02-17 23:48:00,21.2,14.8,30.16,SSE,160,3.0,4.0,76,0.00,,,0.03,Wunderground v.1.15,2013-02-18 04:48:00,
2013-02-17 23:51:00,21.2,14.8,30.16,SSE,157,1.0,3.0,76,0.00,,,0.03,Wunderground v.1.15,2013-02-18 04:51:00,
2013-02-17 23:52:00,21.2,14.8,30.16,SSE,157,1.0,3.0,76,0.00,,,0.03,Wunderground v.1.15,2013-02-18 04:52:00,
2013-02-17 23:53:00,21.2,14.8,30.16,SSE,157,3.0,3.0,76,0.00,,,0.03,Wunderground v.1.15,2013-02-18 04:53:00,
2013-02-17 23:56:00,21.3,14.9,30.16,SSE,161,1.0,3.0,76,0.00,,,0.03,Wunderground v.1.15,2013-02-18 04:56:00,
2013-02-17 23:57:00,21.3,14.9,30.16,SSE,153,2.0,3.0,76,0.00,,,0.03,Wunderground v.1.15,2013-02-18 04:57:00,
2013-02-17 23:58:00,21.3,14.9,30.16,SSE,156,3.0,3.0,76,0.00,,,0.03,Wunderground v.1.15,2013-02-18 04:58:00,